Darstellungsparameter: Aktuell verwendete Einstellungen:
Skalierung der Graphiken ... ?
xyx+y,   Skalierungsfaktor:      Skalierung: Modus: x, Faktor: 1
Darstellungszeitraum ... ?
Vom - - bis: - -   Zeitraum: 16.08.2019 - 22.08.2019
Min/Max/Avg-Anzeige ... ?
Zeige MMA aktuell
Zeige MMA Monat
Zeige MMA alles
Zeige --A aktuell
Zeige --A Monat
Zeige --A alles
Keine MMA-Anzeige
MMA:
Minimum Maximum Average (ber die Originaldaten)
MMA-Basis: 23.02.2003 - 16.08.2019
Quicknavigation für Darstellung... ?
Tage:      1T, 2T, 3T, 5T -1T -2T -3T -5T +1T +2T +3T +5T
Wochen: 1W, 2W, 3W -1W -2W -3W +1W +2W +3W
Monate: 1M, 3M, 6M -1M -3M -6M +1M +3M +6M
Jahre:    1J, 3J, 5J, 10J -1J -3J -5J -10J +1J +3J +5J +10J
Nutze für die Darstellung ... ?
Originaldaten oder Mittelwerte auf ...
Stundenbasis Tagesbasis Wochenbasis
Monatsbasis Jahresbasis      Datenbasis: Original-Daten
Darstellen als:
Statistik (Auto) Statistik J:M      Darstellung:
Zur Graphik,    zurück zur Übersicht aller Sensoren.
 
Tabellarische Datenbersicht: ?
 
Sensor: Nr:Datum:Temp:Feuchte:Taupunkt:
Aussen-T/F 1 16-08-2019 00:00:00 15.4 C 95 % 14.6 C
2 16-08-2019 00:05:00 15.4 C 95 % 14.6 C
3 16-08-2019 00:10:00 15.4 C 95 % 14.6 C
4 16-08-2019 00:15:00 15.4 C 96 % 14.77 C
5 16-08-2019 00:20:00 15.4 C 95 % 14.6 C
6 16-08-2019 00:25:00 15.4 C 95 % 14.6 C
7 16-08-2019 00:30:00 15.4 C 95 % 14.6 C
8 16-08-2019 00:35:00 15.3 C 95 % 14.5 C
9 16-08-2019 00:40:00 15.2 C 95 % 14.4 C
10 16-08-2019 00:45:00 15.2 C 95 % 14.4 C
11 16-08-2019 00:50:00 15.1 C 95 % 14.31 C
12 16-08-2019 00:55:00 14.9 C 95 % 14.11 C
13 16-08-2019 01:00:00 14.8 C 95 % 14.01 C
14 16-08-2019 01:05:00 14.8 C 95 % 14.01 C
15 16-08-2019 01:10:00 14.7 C 95 % 13.91 C
16 16-08-2019 01:15:00 14.7 C 95 % 13.91 C
17 16-08-2019 01:20:00 14.7 C 95 % 13.91 C
18 16-08-2019 01:25:00 14.6 C 95 % 13.81 C
19 16-08-2019 01:30:00 14.6 C 95 % 13.81 C
20 16-08-2019 01:35:00 14.6 C 95 % 13.81 C
21 16-08-2019 01:40:00 14.6 C 95 % 13.81 C
22 16-08-2019 01:45:00 14.5 C 96 % 13.87 C
23 16-08-2019 01:50:00 14.5 C 96 % 13.87 C
24 16-08-2019 01:55:00 14.5 C 96 % 13.87 C
25 16-08-2019 02:00:00 14.5 C 96 % 13.87 C
Sensor: Nr:Datum:Temp:Feuchte:Taupunkt:
Aussen-T/F 26 16-08-2019 02:05:00 14.5 C 96 % 13.87 C
27 16-08-2019 02:10:00 14.5 C 96 % 13.87 C
28 16-08-2019 02:15:00 14.6 C 96 % 13.97 C
29 16-08-2019 02:20:00 14.6 C 96 % 13.97 C
30 16-08-2019 02:25:00 14.6 C 96 % 13.97 C
31 16-08-2019 02:30:00 14.6 C 96 % 13.97 C
32 16-08-2019 02:35:00 14.6 C 96 % 13.97 C
33 16-08-2019 02:40:00 14.6 C 96 % 13.97 C
34 16-08-2019 02:45:00 14.6 C 96 % 13.97 C
35 16-08-2019 02:50:00 14.6 C 96 % 13.97 C
36 16-08-2019 02:55:00 14.6 C 96 % 13.97 C
37 16-08-2019 03:00:00 14.6 C 96 % 13.97 C
38 16-08-2019 03:05:00 14.6 C 96 % 13.97 C
39 16-08-2019 03:10:00 14.6 C 96 % 13.97 C
40 16-08-2019 03:15:00 14.6 C 96 % 13.97 C
41 16-08-2019 03:20:00 14.6 C 96 % 13.97 C
42 16-08-2019 03:25:00 14.7 C 96 % 14.07 C
43 16-08-2019 03:30:00 14.7 C 96 % 14.07 C
44 16-08-2019 03:35:00 14.7 C 96 % 14.07 C
45 16-08-2019 03:40:00 14.7 C 96 % 14.07 C
46 16-08-2019 03:45:00 14.7 C 96 % 14.07 C
47 16-08-2019 03:50:00 14.6 C 96 % 13.97 C
48 16-08-2019 03:55:00 14.6 C 96 % 13.97 C
49 16-08-2019 04:00:00 14.6 C 96 % 13.97 C
50 16-08-2019 04:05:00 14.6 C 96 % 13.97 C
Sensor: Nr:Datum:Temp:Feuchte:Taupunkt:
Aussen-T/F 51 16-08-2019 04:10:00 14.5 C 96 % 13.87 C
52 16-08-2019 04:15:00 14.4 C 96 % 13.77 C
53 16-08-2019 04:20:00 14.3 C 96 % 13.67 C
54 16-08-2019 04:25:00 14.1 C 96 % 13.47 C
55 16-08-2019 04:30:00 14 C 96 % 13.37 C
56 16-08-2019 04:35:00 13.8 C 96 % 13.17 C
57 16-08-2019 04:40:00 13.8 C 96 % 13.17 C
58 16-08-2019 04:45:00 13.7 C 96 % 13.07 C
59 16-08-2019 04:50:00 13.6 C 96 % 12.97 C
60 16-08-2019 04:55:00 13.6 C 96 % 12.97 C
61 16-08-2019 05:00:00 13.6 C 96 % 12.97 C
62 16-08-2019 05:05:00 13.5 C 96 % 12.87 C
63 16-08-2019 05:10:00 13.5 C 96 % 12.87 C
64 16-08-2019 05:15:00 13.6 C 96 % 12.97 C
65 16-08-2019 05:20:00 13.6 C 96 % 12.97 C
66 16-08-2019 05:25:00 13.6 C 96 % 12.97 C
67 16-08-2019 05:30:00 13.6 C 96 % 12.97 C
68 16-08-2019 05:35:00 13.6 C 96 % 12.97 C
69 16-08-2019 05:40:00 13.6 C 96 % 12.97 C
70 16-08-2019 05:45:00 13.6 C 97 % 13.13 C
71 16-08-2019 05:50:00 13.5 C 97 % 13.03 C
72 16-08-2019 05:55:00 13.6 C 97 % 13.13 C
73 16-08-2019 06:00:00 13.6 C 97 % 13.13 C
74 16-08-2019 06:05:00 13.6 C 97 % 13.13 C
75 16-08-2019 06:10:00 13.6 C 97 % 13.13 C
Sensor: Nr:Datum:Temp:Feuchte:Taupunkt:
Aussen-T/F 76 16-08-2019 06:15:00 13.6 C 97 % 13.13 C
77 16-08-2019 06:20:00 13.6 C 97 % 13.13 C
78 16-08-2019 06:25:00 13.6 C 97 % 13.13 C
79 16-08-2019 06:30:00 13.6 C 97 % 13.13 C
80 16-08-2019 06:35:00 13.7 C 97 % 13.23 C
81 16-08-2019 06:40:00 13.8 C 97 % 13.33 C
82 16-08-2019 06:45:00 13.8 C 97 % 13.33 C
83 16-08-2019 06:50:00 13.9 C 97 % 13.43 C
84 16-08-2019 06:55:00 13.9 C 97 % 13.43 C
85 16-08-2019 07:00:00 14.1 C 97 % 13.63 C
86 16-08-2019 07:05:00 14.1 C 97 % 13.63 C
87 16-08-2019 07:10:00 14.1 C 97 % 13.63 C
88 16-08-2019 07:15:00 14.1 C 97 % 13.63 C
89 16-08-2019 07:20:00 14.1 C 97 % 13.63 C
90 16-08-2019 07:25:00 14.2 C 97 % 13.73 C
91 16-08-2019 07:30:00 14.2 C 97 % 13.73 C
92 16-08-2019 07:35:00 14.2 C 96 % 13.57 C
93 16-08-2019 07:40:00 14.2 C 96 % 13.57 C
94 16-08-2019 07:45:00 14.3 C 96 % 13.67 C
95 16-08-2019 07:50:00 14.3 C 96 % 13.67 C
96 16-08-2019 07:55:00 14.3 C 96 % 13.67 C
97 16-08-2019 08:00:00 14.3 C 96 % 13.67 C
98 16-08-2019 08:05:00 14.3 C 96 % 13.67 C
99 16-08-2019 08:10:00 14.3 C 96 % 13.67 C
100 16-08-2019 08:15:00 14.3 C 96 % 13.67 C
Sensor: Nr:Datum:Temp:Feuchte:Taupunkt:
Aussen-T/F 101 16-08-2019 08:20:00 14.3 C 96 % 13.67 C
102 16-08-2019 08:25:00 14.3 C 96 % 13.67 C
103 16-08-2019 08:30:00 14.4 C 96 % 13.77 C
104 16-08-2019 08:35:00 14.4 C 95 % 13.61 C
105 16-08-2019 08:40:00 14.6 C 95 % 13.81 C
106 16-08-2019 08:45:00 14.7 C 94 % 13.74 C
107 16-08-2019 08:50:00 14.8 C 93 % 13.68 C
108 16-08-2019 08:55:00 14.8 C 92 % 13.51 C
109 16-08-2019 09:00:00 14.9 C 92 % 13.61 C
110 16-08-2019 09:05:00 15.1 C 91 % 13.64 C
111 16-08-2019 09:10:00 15.2 C 91 % 13.74 C
112 16-08-2019 09:15:00 15.3 C 91 % 13.84 C
113 16-08-2019 09:20:00 15.3 C 90 % 13.67 C
114 16-08-2019 09:25:00 15.4 C 90 % 13.77 C
115 16-08-2019 09:30:00 15.6 C 89 % 13.79 C
116 16-08-2019 09:35:00 15.7 C 89 % 13.89 C
117 16-08-2019 09:40:00 15.8 C 89 % 13.99 C
118 16-08-2019 09:45:00 16 C 89 % 14.19 C
119 16-08-2019 09:50:00 16.1 C 88 % 14.11 C
120 16-08-2019 09:55:00 16.1 C 88 % 14.11 C
121 16-08-2019 10:00:00 16.1 C 87 % 13.94 C
122 16-08-2019 10:05:00 16.1 C 87 % 13.94 C
123 16-08-2019 10:10:00 16.1 C 86 % 13.76 C
124 16-08-2019 10:15:00 16.2 C 87 % 14.03 C
125 16-08-2019 10:20:00 16.2 C 87 % 14.03 C
Sensor: Nr:Datum:Temp:Feuchte:Taupunkt:
Aussen-T/F 126 16-08-2019 10:25:00 16.3 C 86 % 13.95 C
127 16-08-2019 10:30:00 16.3 C 85 % 13.77 C
128 16-08-2019 10:35:00 16.2 C 85 % 13.68 C
129 16-08-2019 10:40:00 16.3 C 85 % 13.77 C
130 16-08-2019 10:45:00 16.4 C 85 % 13.87 C
131 16-08-2019 10:50:00 16.4 C 85 % 13.87 C
132 16-08-2019 10:55:00 16.6 C 84 % 13.89 C
133 16-08-2019 11:00:00 16.7 C 84 % 13.98 C
134 16-08-2019 11:05:00 16.7 C 84 % 13.98 C
135 16-08-2019 11:10:00 16.7 C 84 % 13.98 C
136 16-08-2019 11:15:00 16.8 C 84 % 14.08 C
137 16-08-2019 11:20:00 16.9 C 83 % 14 C
138 16-08-2019 11:25:00 17.1 C 83 % 14.19 C
139 16-08-2019 11:30:00 17.1 C 82 % 14 C
140 16-08-2019 11:35:00 17.2 C 83 % 14.29 C
141 16-08-2019 11:40:00 17.3 C 81 % 14.01 C
142 16-08-2019 11:45:00 17.4 C 81 % 14.11 C
143 16-08-2019 11:50:00 17.6 C 80 % 14.11 C
144 16-08-2019 11:55:00 17.7 C 80 % 14.21 C
145 16-08-2019 12:00:00 17.8 C 80 % 14.31 C
146 16-08-2019 12:05:00 17.8 C 78 % 13.91 C
147 16-08-2019 12:10:00 17.9 C 79 % 14.21 C
148 16-08-2019 12:15:00 18 C 78 % 14.11 C
149 16-08-2019 12:20:00 18.2 C 78 % 14.3 C
150 16-08-2019 12:25:00 18.3 C 76 % 14 C
Sensor: Nr:Datum:Temp:Feuchte:Taupunkt:
Aussen-T/F 151 16-08-2019 12:30:00 18.5 C 76 % 14.19 C
152 16-08-2019 12:35:00 18.7 C 76 % 14.39 C
153 16-08-2019 12:40:00 18.8 C 75 % 14.28 C
154 16-08-2019 12:45:00 18.9 C 74 % 14.17 C
155 16-08-2019 12:50:00 19.1 C 74 % 14.36 C
156 16-08-2019 12:55:00 19.2 C 73 % 14.25 C
157 16-08-2019 13:00:00 19.3 C 72 % 14.13 C
158 16-08-2019 13:05:00 19.4 C 72 % 14.22 C
159 16-08-2019 13:10:00 19.4 C 70 % 13.79 C
160 16-08-2019 13:15:00 19.5 C 71 % 14.1 C
161 16-08-2019 13:20:00 19.6 C 70 % 13.98 C
162 16-08-2019 13:25:00 19.7 C 70 % 14.08 C
163 16-08-2019 13:30:00 19.7 C 71 % 14.3 C
164 16-08-2019 13:35:00 19.8 C 70 % 14.17 C
165 16-08-2019 13:40:00 19.8 C 71 % 14.39 C
166 16-08-2019 13:45:00 19.8 C 71 % 14.39 C
167 16-08-2019 13:50:00 19.9 C 70 % 14.27 C
168 16-08-2019 13:55:00 19.9 C 71 % 14.49 C
169 16-08-2019 14:00:00 19.9 C 71 % 14.49 C
170 16-08-2019 14:05:00 19.9 C 69 % 14.05 C
171 16-08-2019 14:10:00 19.9 C 69 % 14.05 C
172 16-08-2019 14:15:00 20.1 C 69 % 14.24 C
173 16-08-2019 14:20:00 20.2 C 69 % 14.33 C
174 16-08-2019 14:25:00 20.2 C 68 % 14.11 C
175 16-08-2019 14:30:00 20.4 C 67 % 14.07 C
Sensor: Nr:Datum:Temp:Feuchte:Taupunkt:
Aussen-T/F 176 16-08-2019 14:35:00 20.5 C 67 % 14.16 C
177 16-08-2019 14:40:00 20.7 C 67 % 14.36 C
178 16-08-2019 14:45:00 20.9 C 66 % 14.31 C
179 16-08-2019 14:50:00 21 C 65 % 14.17 C
180 16-08-2019 14:55:00 21.1 C 65 % 14.27 C
181 16-08-2019 15:00:00 21.3 C 65 % 14.46 C
182 16-08-2019 15:05:00 21.5 C 65 % 14.65 C
183 16-08-2019 15:10:00 21.7 C 62 % 14.1 C
184 16-08-2019 15:15:00 21.8 C 63 % 14.45 C
185 16-08-2019 15:20:00 21.8 C 60 % 13.69 C
186 16-08-2019 15:25:00 21.7 C 61 % 13.85 C
187 16-08-2019 15:30:00 21.8 C 60 % 13.69 C
188 16-08-2019 15:35:00 22.1 C 58 % 13.45 C
189 16-08-2019 15:40:00 22.3 C 61 % 14.42 C
190 16-08-2019 15:45:00 22.2 C 59 % 13.81 C
191 16-08-2019 15:50:00 22.1 C 59 % 13.72 C
192 16-08-2019 15:55:00 22.6 C 59 % 14.18 C
193 16-08-2019 16:00:00 22.7 C 56 % 13.47 C
194 16-08-2019 16:05:00 22.9 C 55 % 13.38 C
195 16-08-2019 16:10:00 23.1 C 57 % 14.12 C
196 16-08-2019 16:15:00 23.2 C 54 % 13.38 C
197 16-08-2019 16:20:00 23.4 C 59 % 14.93 C
198 16-08-2019 16:25:00 23.8 C 55 % 14.22 C
199 16-08-2019 16:30:00 24 C 54 % 14.12 C
200 16-08-2019 16:35:00 24 C 53 % 13.83 C
Sensor: Nr:Datum:Temp:Feuchte:Taupunkt:
Aussen-T/F 201 16-08-2019 16:40:00 23.9 C 54 % 14.03 C
202 16-08-2019 16:45:00 24.1 C 52 % 13.63 C
203 16-08-2019 16:50:00 24.3 C 53 % 14.11 C
204 16-08-2019 16:55:00 24.2 C 52 % 13.73 C
205 16-08-2019 17:00:00 24.2 C 51 % 13.43 C
206 16-08-2019 17:05:00 24.4 C 53 % 14.2 C
207 16-08-2019 17:10:00 24.4 C 52 % 13.91 C
208 16-08-2019 17:15:00 24.5 C 50 % 13.4 C
209 16-08-2019 17:20:00 24.5 C 51 % 13.7 C
210 16-08-2019 17:25:00 24.4 C 52 % 13.91 C
211 16-08-2019 17:30:00 24.4 C 50 % 13.31 C
212 16-08-2019 17:35:00 24.6 C 53 % 14.39 C
213 16-08-2019 17:40:00 24.7 C 51 % 13.89 C
214 16-08-2019 17:45:00 24.3 C 54 % 14.4 C
215 16-08-2019 17:50:00 24.5 C 54 % 14.58 C
216 16-08-2019 17:55:00 24.8 C 51 % 13.98 C
217 16-08-2019 18:00:00 24.8 C 55 % 15.15 C
218 16-08-2019 18:05:00 24.9 C 52 % 14.37 C
219 16-08-2019 18:10:00 24.7 C 51 % 13.89 C
220 16-08-2019 18:15:00 24.4 C 54 % 14.49 C
221 16-08-2019 18:20:00 24.6 C 52 % 14.09 C
222 16-08-2019 18:25:00 24.6 C 52 % 14.09 C
223 16-08-2019 18:30:00 24.4 C 52 % 13.91 C
224 16-08-2019 18:35:00 24.3 C 50 % 13.22 C
225 16-08-2019 18:40:00 24.1 C 52 % 13.63 C
Sensor: Nr:Datum:Temp:Feuchte:Taupunkt:
Aussen-T/F 226 16-08-2019 18:45:00 24.1 C 51 % 13.34 C
227 16-08-2019 18:50:00 24.2 C 52 % 13.73 C
228 16-08-2019 18:55:00 24.1 C 52 % 13.63 C
229 16-08-2019 19:00:00 24.1 C 54 % 14.21 C
230 16-08-2019 19:05:00 24.1 C 54 % 14.21 C
231 16-08-2019 19:10:00 24.1 C 53 % 13.93 C
232 16-08-2019 19:15:00 23.9 C 53 % 13.74 C
233 16-08-2019 19:20:00 23.7 C 53 % 13.56 C
234 16-08-2019 19:25:00 23.5 C 53 % 13.37 C
235 16-08-2019 19:30:00 23.3 C 59 % 14.84 C
236 16-08-2019 19:35:00 23.1 C 60 % 14.91 C
237 16-08-2019 19:40:00 23.1 C 65 % 16.16 C
238 16-08-2019 19:45:00 22.9 C 64 % 15.73 C
239 16-08-2019 19:50:00 22.7 C 65 % 15.78 C
240 16-08-2019 19:55:00 22.5 C 65 % 15.59 C
241 16-08-2019 20:00:00 22.1 C 67 % 15.69 C
242 16-08-2019 20:05:00 21.7 C 68 % 15.54 C
243 16-08-2019 20:10:00 21.2 C 68 % 15.06 C
244 16-08-2019 20:15:00 20.8 C 70 % 15.13 C
245 16-08-2019 20:20:00 20.4 C 71 % 14.97 C
246 16-08-2019 20:25:00 20.1 C 71 % 14.68 C
247 16-08-2019 20:30:00 19.8 C 72 % 14.61 C
248 16-08-2019 20:35:00 19.4 C 73 % 14.44 C
249 16-08-2019 20:40:00 19.2 C 73 % 14.25 C
250 16-08-2019 20:45:00 18.9 C 74 % 14.17 C
Sensor: Nr:Datum:Temp:Feuchte:Taupunkt:
Aussen-T/F 251 16-08-2019 20:50:00 18.7 C 76 % 14.39 C
252 16-08-2019 20:55:00 18.6 C 76 % 14.29 C
253 16-08-2019 21:00:00 18.4 C 78 % 14.5 C
254 16-08-2019 21:05:00 18.2 C 78 % 14.3 C
255 16-08-2019 21:10:00 18.1 C 78 % 14.21 C
256 16-08-2019 21:15:00 18 C 80 % 14.5 C
257 16-08-2019 21:20:00 17.9 C 80 % 14.4 C
258 16-08-2019 21:25:00 17.8 C 80 % 14.31 C
259 16-08-2019 21:30:00 17.7 C 81 % 14.4 C
260 16-08-2019 21:35:00 17.6 C 81 % 14.3 C
261 16-08-2019 21:40:00 17.5 C 81 % 14.2 C
262 16-08-2019 21:45:00 17.4 C 82 % 14.3 C
263 16-08-2019 21:50:00 17.3 C 82 % 14.2 C
264 16-08-2019 21:55:00 17.2 C 83 % 14.29 C
265 16-08-2019 22:00:00 17.2 C 83 % 14.29 C
266 16-08-2019 22:05:00 17.1 C 84 % 14.38 C
267 16-08-2019 22:10:00 17.1 C 84 % 14.38 C
268 16-08-2019 22:15:00 17 C 85 % 14.46 C
269 16-08-2019 22:20:00 16.9 C 85 % 14.36 C
270 16-08-2019 22:25:00 16.9 C 85 % 14.36 C
271 16-08-2019 22:30:00 16.8 C 85 % 14.26 C
272 16-08-2019 22:35:00 16.8 C 85 % 14.26 C
273 16-08-2019 22:40:00 16.7 C 85 % 14.17 C
274 16-08-2019 22:45:00 16.7 C 85 % 14.17 C
275 16-08-2019 22:50:00 16.7 C 86 % 14.35 C
Sensor: Nr:Datum:Temp:Feuchte:Taupunkt:
Aussen-T/F 276 16-08-2019 22:55:00 16.7 C 86 % 14.35 C
277 16-08-2019 23:00:00 16.6 C 86 % 14.25 C
278 16-08-2019 23:05:00 16.5 C 86 % 14.15 C
279 16-08-2019 23:10:00 16.4 C 86 % 14.05 C
280 16-08-2019 23:15:00 16.3 C 86 % 13.95 C
281 16-08-2019 23:20:00 16.3 C 86 % 13.95 C
282 16-08-2019 23:25:00 16.2 C 87 % 14.03 C
283 16-08-2019 23:30:00 16.2 C 87 % 14.03 C
284 16-08-2019 23:35:00 16.2 C 87 % 14.03 C
285 16-08-2019 23:40:00 16.1 C 87 % 13.94 C
286 16-08-2019 23:45:00 16.1 C 87 % 13.94 C
287 16-08-2019 23:50:00 16 C 87 % 13.84 C
288 16-08-2019 23:55:00 15.9 C 87 % 13.74 C
289 17-08-2019 00:00:00 15.8 C 87 % 13.64 C
290 17-08-2019 00:05:00 15.7 C 87 % 13.54 C
291 17-08-2019 00:10:00 15.7 C 87 % 13.54 C
292 17-08-2019 00:15:00 15.6 C 87 % 13.45 C
293 17-08-2019 00:20:00 15.6 C 88 % 13.62 C
294 17-08-2019 00:25:00 15.6 C 88 % 13.62 C
295 17-08-2019 00:30:00 15.6 C 88 % 13.62 C
296 17-08-2019 00:35:00 15.7 C 89 % 13.89 C
297 17-08-2019 00:40:00 15.7 C 89 % 13.89 C
298 17-08-2019 00:45:00 15.7 C 88 % 13.72 C
299 17-08-2019 00:50:00 15.8 C 88 % 13.82 C
300 17-08-2019 00:55:00 15.8 C 88 % 13.82 C
Sensor: Nr:Datum:Temp:Feuchte:Taupunkt:
Aussen-T/F 301 17-08-2019 01:00:00 15.8 C 88 % 13.82 C
302 17-08-2019 01:05:00 15.8 C 88 % 13.82 C
303 17-08-2019 01:10:00 15.9 C 88 % 13.92 C
304 17-08-2019 01:15:00 15.9 C 89 % 14.09 C
305 17-08-2019 01:20:00 15.9 C 88 % 13.92 C
306 17-08-2019 01:25:00 15.9 C 88 % 13.92 C
307 17-08-2019 01:30:00 15.9 C 89 % 14.09 C
308 17-08-2019 01:35:00 15.9 C 88 % 13.92 C
309 17-08-2019 01:40:00 15.9 C 88 % 13.92 C
310 17-08-2019 01:45:00 15.8 C 88 % 13.82 C
311 17-08-2019 01:50:00 15.8 C 88 % 13.82 C
312 17-08-2019 01:55:00 15.9 C 89 % 14.09 C
313 17-08-2019 02:00:00 15.9 C 89 % 14.09 C
314 17-08-2019 02:05:00 15.8 C 88 % 13.82 C
315 17-08-2019 02:10:00 15.8 C 88 % 13.82 C
316 17-08-2019 02:15:00 15.8 C 88 % 13.82 C
317 17-08-2019 02:20:00 15.8 C 88 % 13.82 C
318 17-08-2019 02:25:00 15.8 C 89 % 13.99 C
319 17-08-2019 02:30:00 15.7 C 88 % 13.72 C
320 17-08-2019 02:35:00 15.7 C 89 % 13.89 C
321 17-08-2019 02:40:00 15.7 C 89 % 13.89 C
322 17-08-2019 02:45:00 15.7 C 89 % 13.89 C
323 17-08-2019 02:50:00 15.7 C 89 % 13.89 C
324 17-08-2019 02:55:00 15.8 C 90 % 14.16 C
325 17-08-2019 03:00:00 15.8 C 90 % 14.16 C
Sensor: Nr:Datum:Temp:Feuchte:Taupunkt:
Aussen-T/F 326 17-08-2019 03:05:00 15.8 C 90 % 14.16 C
327 17-08-2019 03:10:00 15.8 C 90 % 14.16 C
328 17-08-2019 03:15:00 15.8 C 90 % 14.16 C
329 17-08-2019 03:20:00 15.8 C 91 % 14.33 C
330 17-08-2019 03:25:00 15.8 C 91 % 14.33 C
331 17-08-2019 03:30:00 15.8 C 91 % 14.33 C
332 17-08-2019 03:35:00 15.8 C 92 % 14.5 C
333 17-08-2019 03:40:00 15.7 C 92 % 14.4 C
334 17-08-2019 03:45:00 15.7 C 92 % 14.4 C
335 17-08-2019 03:50:00 15.7 C 92 % 14.4 C
336 17-08-2019 03:55:00 15.7 C 92 % 14.4 C
337 17-08-2019 04:00:00 15.7 C 92 % 14.4 C
338 17-08-2019 04:05:00 15.7 C 93 % 14.57 C
339 17-08-2019 04:10:00 15.7 C 93 % 14.57 C
340 17-08-2019 04:15:00 15.7 C 93 % 14.57 C
341 17-08-2019 04:20:00 15.7 C 93 % 14.57 C
342 17-08-2019 04:25:00 15.7 C 93 % 14.57 C
343 17-08-2019 04:30:00 15.7 C 93 % 14.57 C
344 17-08-2019 04:35:00 15.7 C 93 % 14.57 C
345 17-08-2019 04:40:00 15.7 C 94 % 14.74 C
346 17-08-2019 04:45:00 15.7 C 94 % 14.74 C
347 17-08-2019 04:50:00 15.6 C 94 % 14.64 C
348 17-08-2019 04:55:00 15.7 C 94 % 14.74 C
349 17-08-2019 05:00:00 15.7 C 94 % 14.74 C
350 17-08-2019 05:05:00 15.7 C 94 % 14.74 C
Sensor: Nr:Datum:Temp:Feuchte:Taupunkt:
Aussen-T/F 351 17-08-2019 05:10:00 15.7 C 94 % 14.74 C
352 17-08-2019 05:15:00 15.7 C 94 % 14.74 C
353 17-08-2019 05:20:00 15.6 C 94 % 14.64 C
354 17-08-2019 05:25:00 15.6 C 94 % 14.64 C
355 17-08-2019 05:30:00 15.6 C 94 % 14.64 C
356 17-08-2019 05:35:00 15.6 C 94 % 14.64 C
357 17-08-2019 05:40:00 15.6 C 94 % 14.64 C
358 17-08-2019 05:45:00 15.6 C 94 % 14.64 C
359 17-08-2019 05:50:00 15.6 C 94 % 14.64 C
360 17-08-2019 05:55:00 15.6 C 94 % 14.64 C
361 17-08-2019 06:00:00 15.6 C 94 % 14.64 C
362 17-08-2019 06:05:00 15.6 C 94 % 14.64 C
363 17-08-2019 06:10:00 15.6 C 94 % 14.64 C
364 17-08-2019 06:15:00 15.6 C 94 % 14.64 C
365 17-08-2019 06:20:00 15.6 C 94 % 14.64 C
366 17-08-2019 06:25:00 15.6 C 94 % 14.64 C
367 17-08-2019 06:30:00 15.6 C 94 % 14.64 C
368 17-08-2019 06:35:00 15.7 C 94 % 14.74 C
369 17-08-2019 06:40:00 15.7 C 94 % 14.74 C
370 17-08-2019 06:45:00 15.7 C 94 % 14.74 C
371 17-08-2019 06:50:00 15.8 C 94 % 14.84 C
372 17-08-2019 06:55:00 15.8 C 94 % 14.84 C
373 17-08-2019 07:00:00 15.8 C 94 % 14.84 C
374 17-08-2019 07:05:00 15.8 C 94 % 14.84 C
375 17-08-2019 07:10:00 15.9 C 94 % 14.94 C
Sensor: Nr:Datum:Temp:Feuchte:Taupunkt:
Aussen-T/F 376 17-08-2019 07:15:00 16 C 94 % 15.03 C
377 17-08-2019 07:20:00 16.1 C 94 % 15.13 C
378 17-08-2019 07:25:00 16.1 C 94 % 15.13 C
379 17-08-2019 07:30:00 16.2 C 94 % 15.23 C
380 17-08-2019 07:35:00 16.2 C 94 % 15.23 C
381 17-08-2019 07:40:00 16.3 C 94 % 15.33 C
382 17-08-2019 07:45:00 16.3 C 94 % 15.33 C
383 17-08-2019 07:50:00 16.4 C 94 % 15.43 C
384 17-08-2019 07:55:00 16.5 C 94 % 15.53 C
385 17-08-2019 08:00:00 16.6 C 94 % 15.63 C
386 17-08-2019 08:05:00 16.6 C 94 % 15.63 C
387 17-08-2019 08:10:00 16.7 C 94 % 15.73 C
388 17-08-2019 08:15:00 16.7 C 94 % 15.73 C
389 17-08-2019 08:20:00 16.7 C 92 % 15.39 C
390 17-08-2019 08:25:00 16.8 C 92 % 15.49 C
391 17-08-2019 08:30:00 16.8 C 91 % 15.32 C
392 17-08-2019 08:35:00 16.9 C 90 % 15.25 C
393 17-08-2019 08:40:00 17.1 C 90 % 15.45 C
394 17-08-2019 08:45:00 17.3 C 88 % 15.29 C
395 17-08-2019 08:50:00 17.5 C 86 % 15.13 C
396 17-08-2019 08:55:00 17.8 C 84 % 15.06 C
397 17-08-2019 09:00:00 18.2 C 83 % 15.27 C
398 17-08-2019 09:05:00 18.5 C 80 % 14.99 C
399 17-08-2019 09:10:00 18.7 C 81 % 15.37 C
400 17-08-2019 09:15:00 18.7 C 81 % 15.37 C
Sensor: Nr:Datum:Temp:Feuchte:Taupunkt:
Aussen-T/F 401 17-08-2019 09:20:00 18.7 C 79 % 14.99 C
402 17-08-2019 09:25:00 18.7 C 79 % 14.99 C
403 17-08-2019 09:30:00 18.7 C 81 % 15.37 C
404 17-08-2019 09:35:00 18.7 C 80 % 15.18 C
405 17-08-2019 09:40:00 18.7 C 79 % 14.99 C
406 17-08-2019 09:45:00 18.8 C 80 % 15.28 C
407 17-08-2019 09:50:00 18.8 C 79 % 15.08 C
408 17-08-2019 09:55:00 18.8 C 80 % 15.28 C
409 17-08-2019 10:00:00 18.9 C 80 % 15.38 C
410 17-08-2019 10:05:00 18.9 C 80 % 15.38 C
411 17-08-2019 10:10:00 18.9 C 81 % 15.57 C
412 17-08-2019 10:15:00 19 C 81 % 15.67 C
413 17-08-2019 10:20:00 19.1 C 81 % 15.76 C
414 17-08-2019 10:25:00 19.1 C 80 % 15.57 C
415 17-08-2019 10:30:00 19.1 C 81 % 15.76 C
416 17-08-2019 10:35:00 19.1 C 80 % 15.57 C
417 17-08-2019 10:40:00 19.1 C 81 % 15.76 C
418 17-08-2019 10:45:00 19.1 C 82 % 15.96 C
419 17-08-2019 10:50:00 19 C 82 % 15.86 C
420 17-08-2019 10:55:00 18.9 C 84 % 16.14 C
421 17-08-2019 11:00:00 18.8 C 84 % 16.04 C
422 17-08-2019 11:05:00 18.8 C 86 % 16.41 C
423 17-08-2019 11:10:00 18.7 C 86 % 16.31 C
424 17-08-2019 11:15:00 18.6 C 86 % 16.21 C
425 17-08-2019 11:20:00 18.4 C 87 % 16.2 C
Sensor: Nr:Datum:Temp:Feuchte:Taupunkt:
Aussen-T/F 426 17-08-2019 11:25:00 18.4 C 88 % 16.38 C
427 17-08-2019 11:30:00 18.4 C 88 % 16.38 C
428 17-08-2019 11:35:00 18.4 C 88 % 16.38 C
429 17-08-2019 11:40:00 18.5 C 88 % 16.48 C
430 17-08-2019 11:45:00 18.6 C 87 % 16.39 C
431 17-08-2019 11:50:00 18.7 C 88 % 16.67 C
432 17-08-2019 11:55:00 18.8 C 86 % 16.41 C
433 17-08-2019 12:00:00 18.9 C 86 % 16.51 C
434 17-08-2019 12:05:00 18.9 C 87 % 16.69 C
435 17-08-2019 12:10:00 19 C 87 % 16.79 C
436 17-08-2019 12:15:00 18.9 C 87 % 16.69 C
437 17-08-2019 12:20:00 18.9 C 86 % 16.51 C
438 17-08-2019 12:25:00 19.1 C 86 % 16.7 C
439 17-08-2019 12:30:00 19.1 C 85 % 16.52 C
440 17-08-2019 12:35:00 19.3 C 85 % 16.72 C
441 17-08-2019 12:40:00 19.5 C 84 % 16.72 C
442 17-08-2019 12:45:00 19.7 C 84 % 16.92 C
443 17-08-2019 12:50:00 19.9 C 84 % 17.12 C
444 17-08-2019 12:55:00 20.1 C 81 % 16.74 C
445 17-08-2019 13:00:00 20.3 C 80 % 16.74 C
446 17-08-2019 13:05:00 20.5 C 79 % 16.73 C
447 17-08-2019 13:10:00 20.6 C 76 % 16.22 C
448 17-08-2019 13:15:00 20.5 C 78 % 16.53 C
449 17-08-2019 13:20:00 20.5 C 76 % 16.12 C
450 17-08-2019 13:25:00 20.6 C 77 % 16.43 C
Sensor: Nr:Datum:Temp:Feuchte:Taupunkt:
Aussen-T/F 451 17-08-2019 13:30:00 20.7 C 76 % 16.32 C
452 17-08-2019 13:35:00 20.8 C 76 % 16.41 C
453 17-08-2019 13:40:00 21 C 75 % 16.4 C
454 17-08-2019 13:45:00 21 C 74 % 16.19 C
455 17-08-2019 13:50:00 20.9 C 75 % 16.3 C
456 17-08-2019 13:55:00 20.8 C 74 % 16 C
457 17-08-2019 14:00:00 20.8 C 75 % 16.21 C
458 17-08-2019 14:05:00 20.8 C 76 % 16.41 C
459 17-08-2019 14:10:00 20.8 C 75 % 16.21 C
460 17-08-2019 14:15:00 20.9 C 74 % 16.09 C
461 17-08-2019 14:20:00 20.9 C 75 % 16.3 C
462 17-08-2019 14:25:00 21 C 76 % 16.61 C
463 17-08-2019 14:30:00 21.1 C 75 % 16.5 C
464 17-08-2019 14:35:00 21.1 C 75 % 16.5 C
465 17-08-2019 14:40:00 21.1 C 75 % 16.5 C
466 17-08-2019 14:45:00 21.1 C 74 % 16.29 C
467 17-08-2019 14:50:00 21.2 C 75 % 16.59 C
468 17-08-2019 14:55:00 21.2 C 74 % 16.38 C
469 17-08-2019 15:00:00 21.3 C 74 % 16.48 C
470 17-08-2019 15:05:00 21.4 C 74 % 16.57 C
471 17-08-2019 15:10:00 21.4 C 74 % 16.57 C
472 17-08-2019 15:15:00 21.4 C 74 % 16.57 C
473 17-08-2019 15:20:00 21.4 C 74 % 16.57 C
474 17-08-2019 15:25:00 21.3 C 74 % 16.48 C
475 17-08-2019 15:30:00 21.2 C 75 % 16.59 C
Sensor: Nr:Datum:Temp:Feuchte:Taupunkt:
Aussen-T/F 476 17-08-2019 15:35:00 21.2 C 77 % 17.01 C
477 17-08-2019 15:40:00 21.2 C 76 % 16.8 C
478 17-08-2019 15:45:00 21.3 C 75 % 16.69 C
479 17-08-2019 15:50:00 21.3 C 75 % 16.69 C
480 17-08-2019 15:55:00 21.4 C 76 % 16.99 C
481 17-08-2019 16:00:00 21.4 C 75 % 16.79 C
482 17-08-2019 16:05:00 21.4 C 75 % 16.79 C
483 17-08-2019 16:10:00 21.4 C 75 % 16.79 C
484 17-08-2019 16:15:00 21.3 C 75 % 16.69 C
485 17-08-2019 16:20:00 21.1 C 75 % 16.5 C
486 17-08-2019 16:25:00 20.8 C 76 % 16.41 C
487 17-08-2019 16:30:00 20.8 C 77 % 16.62 C
488 17-08-2019 16:35:00 20.7 C 76 % 16.32 C
489 17-08-2019 16:40:00 20.7 C 77 % 16.52 C
490 17-08-2019 16:45:00 20.8 C 77 % 16.62 C
491 17-08-2019 16:50:00 20.8 C 76 % 16.41 C
492 17-08-2019 16:55:00 20.8 C 77 % 16.62 C
493 17-08-2019 17:00:00 20.7 C 78 % 16.73 C
494 17-08-2019 17:05:00 20.7 C 79 % 16.93 C
495 17-08-2019 17:10:00 20.6 C 77 % 16.43 C
496 17-08-2019 17:15:00 20.5 C 77 % 16.33 C
497 17-08-2019 17:20:00 20.4 C 77 % 16.23 C
498 17-08-2019 17:25:00 20.4 C 76 % 16.03 C
499 17-08-2019 17:30:00 20.4 C 78 % 16.44 C
500 17-08-2019 17:35:00 20.4 C 77 % 16.23 C
Sensor: Nr:Datum:Temp:Feuchte:Taupunkt:
Aussen-T/F 501 17-08-2019 17:40:00 20.3 C 78 % 16.34 C
502 17-08-2019 17:45:00 20.3 C 79 % 16.54 C
503 17-08-2019 17:50:00 20.3 C 79 % 16.54 C
504 17-08-2019 17:55:00 20.3 C 80 % 16.74 C
505 17-08-2019 18:00:00 20.3 C 79 % 16.54 C
506 17-08-2019 18:05:00 20.3 C 80 % 16.74 C
507 17-08-2019 18:10:00 20.3 C 81 % 16.93 C
508 17-08-2019 18:15:00 20.2 C 82 % 17.03 C
509 17-08-2019 18:20:00 20.1 C 83 % 17.12 C
510 17-08-2019 18:25:00 20.1 C 83 % 17.12 C
511 17-08-2019 18:30:00 19.9 C 84 % 17.12 C
512 17-08-2019 18:35:00 19.8 C 85 % 17.21 C
513 17-08-2019 18:40:00 19.7 C 84 % 16.92 C
514 17-08-2019 18:45:00 19.7 C 85 % 17.11 C
515 17-08-2019 18:50:00 19.7 C 85 % 17.11 C
516 17-08-2019 18:55:00 19.6 C 86 % 17.19 C
517 17-08-2019 19:00:00 19.6 C 87 % 17.38 C
518 17-08-2019 19:05:00 19.5 C 87 % 17.28 C
519 17-08-2019 19:10:00 19.4 C 86 % 17 C
520 17-08-2019 19:15:00 19.3 C 87 % 17.08 C
521 17-08-2019 19:20:00 19.2 C 88 % 17.16 C
522 17-08-2019 19:25:00 19.1 C 88 % 17.07 C
523 17-08-2019 19:30:00 19.1 C 88 % 17.07 C
524 17-08-2019 19:35:00 19 C 89 % 17.15 C
525 17-08-2019 19:40:00 18.9 C 89 % 17.05 C
Sensor: Nr:Datum:Temp:Feuchte:Taupunkt:
Aussen-T/F 526 17-08-2019 19:45:00 18.9 C 90 % 17.22 C
527 17-08-2019 19:50:00 18.8 C 90 % 17.12 C
528 17-08-2019 19:55:00 18.7 C 90 % 17.03 C
529 17-08-2019 20:00:00 18.7 C 90 % 17.03 C
530 17-08-2019 20:05:00 18.6 C 90 % 16.93 C
531 17-08-2019 20:10:00 18.6 C 91 % 17.1 C
532 17-08-2019 20:15:00 18.4 C 91 % 16.9 C
533 17-08-2019 20:20:00 18.4 C 91 % 16.9 C
534 17-08-2019 20:25:00 18.3 C 91 % 16.81 C
535 17-08-2019 20:30:00 18.3 C 91 % 16.81 C
536 17-08-2019 20:35:00 18.2 C 91 % 16.71 C
537 17-08-2019 20:40:00 18.1 C 91 % 16.61 C
538 17-08-2019 20:45:00 18.1 C 92 % 16.78 C
539 17-08-2019 20:50:00 18.1 C 92 % 16.78 C
540 17-08-2019 20:55:00 18.1 C 92 % 16.78 C
541 17-08-2019 21:00:00 18 C 92 % 16.68 C
542 17-08-2019 21:05:00 17.9 C 92 % 16.58 C
543 17-08-2019 21:10:00 17.9 C 92 % 16.58 C
544 17-08-2019 21:15:00 17.9 C 92 % 16.58 C
545 17-08-2019 21:20:00 17.8 C 93 % 16.65 C
546 17-08-2019 21:25:00 17.8 C 93 % 16.65 C
547 17-08-2019 21:30:00 17.8 C 93 % 16.65 C
548 17-08-2019 21:35:00 17.8 C 93 % 16.65 C
549 17-08-2019 21:40:00 17.8 C 93 % 16.65 C
550 17-08-2019 21:45:00 17.8 C 93 % 16.65 C
Sensor: Nr:Datum:Temp:Feuchte:Taupunkt:
Aussen-T/F 551 17-08-2019 21:50:00 17.8 C 93 % 16.65 C
552 17-08-2019 21:55:00 17.8 C 93 % 16.65 C
553 17-08-2019 22:00:00 17.8 C 94 % 16.82 C
554 17-08-2019 22:05:00 17.8 C 94 % 16.82 C
555 17-08-2019 22:10:00 17.8 C 94 % 16.82 C
556 17-08-2019 22:15:00 17.8 C 94 % 16.82 C
557 17-08-2019 22:20:00 17.8 C 94 % 16.82 C
558 17-08-2019 22:25:00 17.8 C 94 % 16.82 C
559 17-08-2019 22:30:00 17.7 C 94 % 16.72 C
560 17-08-2019 22:35:00 17.7 C 94 % 16.72 C
561 17-08-2019 22:40:00 17.7 C 94 % 16.72 C
562 17-08-2019 22:45:00 17.7 C 94 % 16.72 C
563 17-08-2019 22:50:00 17.7 C 94 % 16.72 C
564 17-08-2019 22:55:00 17.6 C 94 % 16.62 C
565 17-08-2019 23:00:00 17.6 C 94 % 16.62 C
566 17-08-2019 23:05:00 17.6 C 94 % 16.62 C
567 17-08-2019 23:10:00 17.6 C 94 % 16.62 C
568 17-08-2019 23:15:00 17.6 C 94 % 16.62 C
569 17-08-2019 23:20:00 17.5 C 95 % 16.69 C
570 17-08-2019 23:25:00 17.5 C 95 % 16.69 C
571 17-08-2019 23:30:00 17.5 C 95 % 16.69 C
572 17-08-2019 23:35:00 17.5 C 95 % 16.69 C
573 17-08-2019 23:40:00 17.5 C 95 % 16.69 C
574 17-08-2019 23:45:00 17.5 C 95 % 16.69 C
575 17-08-2019 23:50:00 17.5 C 95 % 16.69 C
Sensor: Nr:Datum:Temp:Feuchte:Taupunkt:
Aussen-T/F 576 17-08-2019 23:55:00 17.4 C 95 % 16.59 C
577 18-08-2019 00:00:00 17.4 C 95 % 16.59 C
578 18-08-2019 00:05:00 17.4 C 95 % 16.59 C
579 18-08-2019 00:10:00 17.4 C 95 % 16.59 C
580 18-08-2019 00:15:00 17.4 C 95 % 16.59 C
581 18-08-2019 00:20:00 17.4 C 95 % 16.59 C
582 18-08-2019 00:25:00 17.4 C 95 % 16.59 C
583 18-08-2019 00:30:00 17.4 C 95 % 16.59 C
584 18-08-2019 00:35:00 17.4 C 95 % 16.59 C
585 18-08-2019 00:40:00 17.4 C 95 % 16.59 C
586 18-08-2019 00:45:00 17.4 C 95 % 16.59 C
587 18-08-2019 00:50:00 17.4 C 95 % 16.59 C
588 18-08-2019 00:55:00 17.4 C 95 % 16.59 C
589 18-08-2019 01:00:00 17.4 C 95 % 16.59 C
590 18-08-2019 01:05:00 17.4 C 95 % 16.59 C
591 18-08-2019 01:10:00 17.4 C 95 % 16.59 C
592 18-08-2019 01:15:00 17.4 C 95 % 16.59 C
593 18-08-2019 01:20:00 17.4 C 95 % 16.59 C
594 18-08-2019 01:25:00 17.4 C 96 % 16.76 C
595 18-08-2019 01:30:00 17.4 C 96 % 16.76 C
596 18-08-2019 01:35:00 17.4 C 96 % 16.76 C
597 18-08-2019 01:40:00 17.4 C 96 % 16.76 C
598 18-08-2019 01:45:00 17.4 C 96 % 16.76 C
599 18-08-2019 01:50:00 17.3 C 96 % 16.66 C
600 18-08-2019 01:55:00 17.3 C 96 % 16.66 C
Sensor: Nr:Datum:Temp:Feuchte:Taupunkt:
Aussen-T/F 601 18-08-2019 02:00:00 17.3 C 96 % 16.66 C
602 18-08-2019 02:05:00 17.3 C 96 % 16.66 C
603 18-08-2019 02:10:00 17.3 C 96 % 16.66 C
604 18-08-2019 02:15:00 17.2 C 96 % 16.56 C
605 18-08-2019 02:20:00 17.2 C 96 % 16.56 C
606 18-08-2019 02:25:00 17.2 C 96 % 16.56 C
607 18-08-2019 02:30:00 17.2 C 96 % 16.56 C
608 18-08-2019 02:35:00 17.2 C 96 % 16.56 C
609 18-08-2019 02:40:00 17.2 C 96 % 16.56 C
610 18-08-2019 02:45:00 17.2 C 96 % 16.56 C
611 18-08-2019 02:50:00 17.2 C 96 % 16.56 C
612 18-08-2019 02:55:00 17.2 C 96 % 16.56 C
613 18-08-2019 03:00:00 17.2 C 96 % 16.56 C
614 18-08-2019 03:05:00 17.2 C 96 % 16.56 C
615 18-08-2019 03:10:00 17.2 C 96 % 16.56 C
616 18-08-2019 03:15:00 17.2 C 96 % 16.56 C
617 18-08-2019 03:20:00 17.2 C 96 % 16.56 C
618 18-08-2019 03:25:00 17.2 C 96 % 16.56 C
619 18-08-2019 03:30:00 17.2 C 96 % 16.56 C
620 18-08-2019 03:35:00 17.2 C 96 % 16.56 C
621 18-08-2019 03:40:00 17.2 C 96 % 16.56 C
622 18-08-2019 03:45:00 17.2 C 96 % 16.56 C
623 18-08-2019 03:50:00 17.2 C 96 % 16.56 C
624 18-08-2019 03:55:00 17.2 C 96 % 16.56 C
625 18-08-2019 04:00:00 17.2 C 96 % 16.56 C
Sensor: Nr:Datum:Temp:Feuchte:Taupunkt:
Aussen-T/F 626 18-08-2019 04:05:00 17.2 C 96 % 16.56 C
627 18-08-2019 04:10:00 17.2 C 96 % 16.56 C
628 18-08-2019 04:15:00 17.2 C 96 % 16.56 C
629 18-08-2019 04:20:00 17.1 C 96 % 16.46 C
630 18-08-2019 04:25:00 17.1 C 96 % 16.46 C
631 18-08-2019 04:30:00 17.1 C 96 % 16.46 C
632 18-08-2019 04:35:00 17.2 C 96 % 16.56 C
633 18-08-2019 04:40:00 17.2 C 96 % 16.56 C
634 18-08-2019 04:45:00 17.2 C 96 % 16.56 C
635 18-08-2019 04:50:00 17.2 C 96 % 16.56 C
636 18-08-2019 04:55:00 17.3 C 96 % 16.66 C
637 18-08-2019 05:00:00 17.3 C 96 % 16.66 C
638 18-08-2019 05:05:00 17.3 C 96 % 16.66 C
639 18-08-2019 05:10:00 17.3 C 97 % 16.82 C
640 18-08-2019 05:15:00 17.3 C 97 % 16.82 C
641 18-08-2019 05:20:00 17.3 C 97 % 16.82 C
642 18-08-2019 05:25:00 17.3 C 97 % 16.82 C
643 18-08-2019 05:30:00 17.3 C 97 % 16.82 C
644 18-08-2019 05:35:00 17.3 C 97 % 16.82 C
645 18-08-2019 05:40:00 17.3 C 96 % 16.66 C
646 18-08-2019 05:45:00 17.3 C 97 % 16.82 C
647 18-08-2019 05:50:00 17.3 C 97 % 16.82 C
648 18-08-2019 05:55:00 17.3 C 97 % 16.82 C
649 18-08-2019 06:00:00 17.3 C 97 % 16.82 C
650 18-08-2019 06:05:00 17.3 C 97 % 16.82 C
Sensor: Nr:Datum:Temp:Feuchte:Taupunkt:
Aussen-T/F 651 18-08-2019 06:10:00 17.3 C 97 % 16.82 C
652 18-08-2019 06:15:00 17.3 C 97 % 16.82 C
653 18-08-2019 06:20:00 17.3 C 97 % 16.82 C
654 18-08-2019 06:25:00 17.3 C 97 % 16.82 C
655 18-08-2019 06:30:00 17.3 C 97 % 16.82 C
656 18-08-2019 06:35:00 17.3 C 97 % 16.82 C
657 18-08-2019 06:40:00 17.2 C 97 % 16.72 C
658 18-08-2019 06:45:00 17.2 C 97 % 16.72 C
659 18-08-2019 06:50:00 17.2 C 97 % 16.72 C
660 18-08-2019 06:55:00 17.2 C 97 % 16.72 C
661 18-08-2019 07:00:00 17.2 C 97 % 16.72 C
662 18-08-2019 07:05:00 17.2 C 97 % 16.72 C
663 18-08-2019 07:10:00 17.2 C 97 % 16.72 C
664 18-08-2019 07:15:00 17.3 C 97 % 16.82 C
665 18-08-2019 07:20:00 17.3 C 97 % 16.82 C
666 18-08-2019 07:25:00 17.3 C 97 % 16.82 C
667 18-08-2019 07:30:00 17.4 C 97 % 16.92 C
668 18-08-2019 07:35:00 17.4 C 97 % 16.92 C
669 18-08-2019 07:40:00 17.4 C 97 % 16.92 C
670 18-08-2019 07:45:00 17.4 C 97 % 16.92 C
671 18-08-2019 07:50:00 17.5 C 97 % 17.02 C
672 18-08-2019 07:55:00 17.5 C 97 % 17.02 C
673 18-08-2019 08:00:00 17.6 C 97 % 17.12 C
674 18-08-2019 08:05:00 17.6 C 97 % 17.12 C
675 18-08-2019 08:10:00 17.7 C 97 % 17.22 C
Sensor: Nr:Datum:Temp:Feuchte:Taupunkt:
Aussen-T/F 676 18-08-2019 08:15:00 17.8 C 97 % 17.32 C
677 18-08-2019 08:20:00 17.9 C 97 % 17.42 C
678 18-08-2019 08:25:00 17.9 C 97 % 17.42 C
679 18-08-2019 08:30:00 18 C 97 % 17.52 C
680 18-08-2019 08:35:00 18.1 C 97 % 17.62 C
681 18-08-2019 08:40:00 18.1 C 97 % 17.62 C
682 18-08-2019 08:45:00 18.1 C 97 % 17.62 C
683 18-08-2019 08:50:00 18.2 C 97 % 17.72 C
684 18-08-2019 08:55:00 18.2 C 97 % 17.72 C
685 18-08-2019 09:00:00 18.3 C 97 % 17.82 C
686 18-08-2019 09:05:00 18.4 C 97 % 17.91 C
687 18-08-2019 09:10:00 18.6 C 97 % 18.11 C
688 18-08-2019 09:15:00 18.7 C 97 % 18.21 C
689 18-08-2019 09:20:00 18.7 C 97 % 18.21 C
690 18-08-2019 09:25:00 18.8 C 98 % 18.48 C
691 18-08-2019 09:30:00 18.9 C 98 % 18.58 C
692 18-08-2019 09:35:00 19.1 C 97 % 18.61 C
693 18-08-2019 09:40:00 19.2 C 97 % 18.71 C
694 18-08-2019 09:45:00 19.2 C 98 % 18.88 C
695 18-08-2019 09:50:00 19.2 C 97 % 18.71 C
696 18-08-2019 09:55:00 19.2 C 97 % 18.71 C
697 18-08-2019 10:00:00 19.3 C 97 % 18.81 C
698 18-08-2019 10:05:00 19.4 C 97 % 18.91 C
699 18-08-2019 10:10:00 19.6 C 98 % 19.28 C
700 18-08-2019 10:15:00 19.6 C 97 % 19.11 C
Sensor: Nr:Datum:Temp:Feuchte:Taupunkt:
Aussen-T/F 701 18-08-2019 10:20:00 19.6 C 97 % 19.11 C
702 18-08-2019 10:25:00 19.7 C 97 % 19.21 C
703 18-08-2019 10:30:00 19.9 C 97 % 19.41 C
704 18-08-2019 10:35:00 20.1 C 98 % 19.77 C
705 18-08-2019 10:40:00 20.3 C 98 % 19.97 C
706 18-08-2019 10:45:00 20.4 C 98 % 20.07 C
707 18-08-2019 10:50:00 20.6 C 98 % 20.27 C
708 18-08-2019 10:55:00 20.7 C 97 % 20.21 C
709 18-08-2019 11:00:00 21.1 C 97 % 20.6 C
710 18-08-2019 11:05:00 21.6 C 98 % 21.27 C
711 18-08-2019 11:10:00 21.7 C 98 % 21.37 C
712 18-08-2019 11:15:00 21.4 C 96 % 20.74 C
713 18-08-2019 11:20:00 21.5 C 94 % 20.49 C
714 18-08-2019 11:25:00 21.8 C 95 % 20.96 C
715 18-08-2019 11:30:00 22 C 93 % 20.81 C
716 18-08-2019 11:35:00 22.3 C 92 % 20.94 C
717 18-08-2019 11:40:00 22.7 C 90 % 20.97 C
718 18-08-2019 11:45:00 23.1 C 87 % 20.82 C
719 18-08-2019 11:50:00 23.4 C 84 % 20.54 C
720 18-08-2019 11:55:00 23.7 C 81 % 20.24 C
721 18-08-2019 12:00:00 23.8 C 81 % 20.34 C
722 18-08-2019 12:05:00 23.8 C 80 % 20.14 C
723 18-08-2019 12:10:00 23.9 C 79 % 20.03 C
724 18-08-2019 12:15:00 24.1 C 79 % 20.23 C
725 18-08-2019 12:20:00 24.2 C 77 % 19.91 C
Sensor: Nr:Datum:Temp:Feuchte:Taupunkt:
Aussen-T/F 726 18-08-2019 12:25:00 24.2 C 78 % 20.12 C
727 18-08-2019 12:30:00 24.2 C 76 % 19.7 C
728 18-08-2019 12:35:00 24.1 C 76 % 19.6 C
729 18-08-2019 12:40:00 24.1 C 77 % 19.81 C
730 18-08-2019 12:45:00 24.2 C 78 % 20.12 C
731 18-08-2019 12:50:00 24.1 C 75 % 19.39 C
732 18-08-2019 12:55:00 24.2 C 77 % 19.91 C
733 18-08-2019 13:00:00 24.2 C 76 % 19.7 C
734 18-08-2019 13:05:00 24.2 C 77 % 19.91 C
735 18-08-2019 13:10:00 24.2 C 75 % 19.49 C
736 18-08-2019 13:15:00 24.1 C 76 % 19.6 C
737 18-08-2019 13:20:00 24.2 C 78 % 20.12 C
738 18-08-2019 13:25:00 24.2 C 77 % 19.91 C
739 18-08-2019 13:30:00 24.3 C 76 % 19.8 C
740 18-08-2019 13:35:00 24.4 C 76 % 19.89 C
741 18-08-2019 13:40:00 24.6 C 75 % 19.87 C
742 18-08-2019 13:45:00 24.7 C 74 % 19.75 C
743 18-08-2019 13:50:00 24.8 C 76 % 20.28 C
744 18-08-2019 13:55:00 24.9 C 74 % 19.94 C
745 18-08-2019 14:00:00 25 C 75 % 20.26 C
746 18-08-2019 14:05:00 24.9 C 75 % 20.16 C
747 18-08-2019 14:10:00 24.9 C 75 % 20.16 C
748 18-08-2019 14:15:00 24.8 C 75 % 20.06 C
749 18-08-2019 14:20:00 24.7 C 74 % 19.75 C
750 18-08-2019 14:25:00 24.6 C 75 % 19.87 C
Sensor: Nr:Datum:Temp:Feuchte:Taupunkt:
Aussen-T/F 751 18-08-2019 14:30:00 24.6 C 75 % 19.87 C
752 18-08-2019 14:35:00 24.7 C 76 % 20.18 C
753 18-08-2019 14:40:00 24.8 C 75 % 20.06 C
754 18-08-2019 14:45:00 24.7 C 74 % 19.75 C
755 18-08-2019 14:50:00 24.6 C 74 % 19.66 C
756 18-08-2019 14:55:00 24.4 C 75 % 19.68 C
757 18-08-2019 15:00:00 24.4 C 75 % 19.68 C
758 18-08-2019 15:05:00 24.3 C 75 % 19.58 C
759 18-08-2019 15:10:00 24.3 C 77 % 20.01 C
760 18-08-2019 15:15:00 24.3 C 79 % 20.42 C
761 18-08-2019 15:20:00 24.6 C 77 % 20.3 C
762 18-08-2019 15:25:00 24.9 C 77 % 20.59 C
763 18-08-2019 15:30:00 25.1 C 77 % 20.78 C
764 18-08-2019 15:35:00 25.1 C 75 % 20.35 C
765 18-08-2019 15:40:00 24.9 C 74 % 19.94 C
766 18-08-2019 15:45:00 24.8 C 75 % 20.06 C
767 18-08-2019 15:50:00 24.9 C 75 % 20.16 C
768 18-08-2019 15:55:00 24.8 C 74 % 19.85 C
769 18-08-2019 16:00:00 24.8 C 74 % 19.85 C
770 18-08-2019 16:05:00 24.9 C 74 % 19.94 C
771 18-08-2019 16:10:00 25.2 C 74 % 20.23 C
772 18-08-2019 16:15:00 25.2 C 72 % 19.79 C
773 18-08-2019 16:20:00 25.1 C 73 % 19.92 C
774 18-08-2019 16:25:00 25.1 C 73 % 19.92 C
775 18-08-2019 16:30:00 25.2 C 75 % 20.45 C
Sensor: Nr:Datum:Temp:Feuchte:Taupunkt:
Aussen-T/F 776 18-08-2019 16:35:00 25.2 C 71 % 19.56 C
777 18-08-2019 16:40:00 25 C 71 % 19.37 C
778 18-08-2019 16:45:00 24.9 C 73 % 19.72 C
779 18-08-2019 16:50:00 24.7 C 71 % 19.09 C
780 18-08-2019 16:55:00 24.6 C 72 % 19.21 C
781 18-08-2019 17:00:00 24.5 C 73 % 19.34 C
782 18-08-2019 17:05:00 24.7 C 73 % 19.53 C
783 18-08-2019 17:10:00 25.1 C 73 % 19.92 C
784 18-08-2019 17:15:00 25.3 C 71 % 19.66 C
785 18-08-2019 17:20:00 25.3 C 71 % 19.66 C
786 18-08-2019 17:25:00 25.2 C 70 % 19.34 C
787 18-08-2019 17:30:00 25 C 68 % 18.68 C
788 18-08-2019 17:35:00 24.6 C 71 % 18.99 C
789 18-08-2019 17:40:00 24.1 C 71 % 18.51 C
790 18-08-2019 17:45:00 23.6 C 72 % 18.26 C
791 18-08-2019 17:50:00 22.9 C 77 % 18.65 C
792 18-08-2019 17:55:00 21.9 C 83 % 18.88 C
793 18-08-2019 18:00:00 21.2 C 86 % 18.76 C
794 18-08-2019 18:05:00 20.8 C 88 % 18.74 C
795 18-08-2019 18:10:00 20.6 C 90 % 18.9 C
796 18-08-2019 18:15:00 20.4 C 91 % 18.88 C
797 18-08-2019 18:20:00 20.3 C 92 % 18.96 C
798 18-08-2019 18:25:00 20.3 C 92 % 18.96 C
799 18-08-2019 18:30:00 20.3 C 93 % 19.13 C
800 18-08-2019 18:35:00 20.3 C 93 % 19.13 C
Sensor: Nr:Datum:Temp:Feuchte:Taupunkt:
Aussen-T/F 801 18-08-2019 18:40:00 20.4 C 93 % 19.23 C
802 18-08-2019 18:45:00 20.4 C 94 % 19.4 C
803 18-08-2019 18:50:00 20.5 C 94 % 19.5 C
804 18-08-2019 18:55:00 20.4 C 94 % 19.4 C
805 18-08-2019 19:00:00 20.4 C 94 % 19.4 C
806 18-08-2019 19:05:00 20.3 C 93 % 19.13 C
807 18-08-2019 19:10:00 20.2 C 93 % 19.03 C
808 18-08-2019 19:15:00 20.2 C 94 % 19.2 C
809 18-08-2019 19:20:00 20.1 C 94 % 19.1 C
810 18-08-2019 19:25:00 20 C 94 % 19 C
811 18-08-2019 19:30:00 20 C 94 % 19 C
812 18-08-2019 19:35:00 19.9 C 94 % 18.91 C
813 18-08-2019 19:40:00 19.8 C 94 % 18.81 C
814 18-08-2019 19:45:00 19.8 C 94 % 18.81 C
815 18-08-2019 19:50:00 19.7 C 94 % 18.71 C
816 18-08-2019 19:55:00 19.7 C 94 % 18.71 C
817 18-08-2019 20:00:00 19.6 C 94 % 18.61 C
818 18-08-2019 20:05:00 19.6 C 95 % 18.78 C
819 18-08-2019 20:10:00 19.6 C 95 % 18.78 C
820 18-08-2019 20:15:00 19.6 C 95 % 18.78 C
821 18-08-2019 20:20:00 19.5 C 94 % 18.51 C
822 18-08-2019 20:25:00 19.4 C 94 % 18.41 C
823 18-08-2019 20:30:00 19.3 C 94 % 18.31 C
824 18-08-2019 20:35:00 19.4 C 95 % 18.58 C
825 18-08-2019 20:40:00 19.4 C 95 % 18.58 C
Sensor: Nr:Datum:Temp:Feuchte:Taupunkt:
Aussen-T/F 826 18-08-2019 20:45:00 19.4 C 95 % 18.58 C
827 18-08-2019 20:50:00 19.4 C 95 % 18.58 C
828 18-08-2019 20:55:00 19.3 C 95 % 18.48 C
829 18-08-2019 21:00:00 19.3 C 95 % 18.48 C
830 18-08-2019 21:05:00 19.3 C 95 % 18.48 C
831 18-08-2019 21:10:00 19.2 C 95 % 18.38 C
832 18-08-2019 21:15:00 19.1 C 94 % 18.11 C
833 18-08-2019 21:20:00 18.8 C 94 % 17.81 C
834 18-08-2019 21:25:00 18.8 C 94 % 17.81 C
835 18-08-2019 21:30:00 18.7 C 94 % 17.71 C
836 18-08-2019 21:35:00 18.7 C 94 % 17.71 C
837 18-08-2019 21:40:00 18.6 C 94 % 17.62 C
838 18-08-2019 21:45:00 18.4 C 94 % 17.42 C
839 18-08-2019 21:50:00 18.4 C 94 % 17.42 C
840 18-08-2019 21:55:00 18.3 C 95 % 17.48 C
841 18-08-2019 22:00:00 18.2 C 95 % 17.39 C
842 18-08-2019 22:05:00 18.2 C 95 % 17.39 C
843 18-08-2019 22:10:00 18.1 C 95 % 17.29 C
844 18-08-2019 22:15:00 18 C 95 % 17.19 C
845 18-08-2019 22:20:00 17.9 C 95 % 17.09 C
846 18-08-2019 22:25:00 17.8 C 95 % 16.99 C
847 18-08-2019 22:30:00 17.6 C 94 % 16.62 C
848 18-08-2019 22:35:00 17.5 C 94 % 16.52 C
849 18-08-2019 22:40:00 17.3 C 94 % 16.33 C
850 18-08-2019 22:45:00 17.2 C 94 % 16.23 C
Sensor: Nr:Datum:Temp:Feuchte:Taupunkt:
Aussen-T/F 851 18-08-2019 22:50:00 17.1 C 94 % 16.13 C
852 18-08-2019 22:55:00 16.9 C 94 % 15.93 C
853 18-08-2019 23:00:00 16.8 C 95 % 15.99 C
854 18-08-2019 23:05:00 16.8 C 95 % 15.99 C
855 18-08-2019 23:10:00 16.7 C 95 % 15.9 C
856 18-08-2019 23:15:00 16.7 C 95 % 15.9 C
857 18-08-2019 23:20:00 16.7 C 95 % 15.9 C
858 18-08-2019 23:25:00 16.7 C 95 % 15.9 C
859 18-08-2019 23:30:00 16.6 C 95 % 15.8 C
860 18-08-2019 23:35:00 16.6 C 95 % 15.8 C
861 18-08-2019 23:40:00 16.5 C 95 % 15.7 C
862 18-08-2019 23:45:00 16.4 C 95 % 15.6 C
863 18-08-2019 23:50:00 16.3 C 95 % 15.5 C
864 18-08-2019 23:55:00 16.3 C 95 % 15.5 C
865 19-08-2019 00:00:00 16.2 C 96 % 15.56 C
866 19-08-2019 00:05:00 16.2 C 96 % 15.56 C
867 19-08-2019 00:10:00 16.2 C 96 % 15.56 C
868 19-08-2019 00:15:00 16.2 C 96 % 15.56 C
869 19-08-2019 00:20:00 16.2 C 96 % 15.56 C
870 19-08-2019 00:25:00 16.1 C 96 % 15.46 C
871 19-08-2019 00:30:00 16.1 C 96 % 15.46 C
872 19-08-2019 00:35:00 16.1 C 96 % 15.46 C
873 19-08-2019 00:40:00 16.1 C 96 % 15.46 C
874 19-08-2019 00:45:00 16.1 C 96 % 15.46 C
875 19-08-2019 00:50:00 16.1 C 96 % 15.46 C
Sensor: Nr:Datum:Temp:Feuchte:Taupunkt:
Aussen-T/F 876 19-08-2019 00:55:00 16.1 C 96 % 15.46 C
877 19-08-2019 01:00:00 16.2 C 96 % 15.56 C
878 19-08-2019 01:05:00 16.2 C 96 % 15.56 C
879 19-08-2019 01:10:00 16.1 C 96 % 15.46 C
880 19-08-2019 01:15:00 16.1 C 96 % 15.46 C
881 19-08-2019 01:20:00 16.1 C 96 % 15.46 C
882 19-08-2019 01:25:00 16.1 C 96 % 15.46 C
883 19-08-2019 01:30:00 16.1 C 96 % 15.46 C
884 19-08-2019 01:35:00 16.1 C 96 % 15.46 C
885 19-08-2019 01:40:00 16.1 C 96 % 15.46 C
886 19-08-2019 01:45:00 16.1 C 96 % 15.46 C
887 19-08-2019 01:50:00 16.1 C 96 % 15.46 C
888 19-08-2019 01:55:00 16 C 96 % 15.36 C
889 19-08-2019 02:00:00 16 C 96 % 15.36 C
890 19-08-2019 02:05:00 16 C 96 % 15.36 C
891 19-08-2019 02:10:00 16 C 96 % 15.36 C
892 19-08-2019 02:15:00 15.9 C 96 % 15.26 C
893 19-08-2019 02:20:00 15.9 C 96 % 15.26 C
894 19-08-2019 02:25:00 15.8 C 96 % 15.16 C
895 19-08-2019 02:30:00 15.8 C 96 % 15.16 C
896 19-08-2019 02:35:00 15.7 C 96 % 15.06 C
897 19-08-2019 02:40:00 15.7 C 96 % 15.06 C
898 19-08-2019 02:45:00 15.7 C 96 % 15.06 C
899 19-08-2019 02:50:00 15.7 C 96 % 15.06 C
900 19-08-2019 02:55:00 15.6 C 96 % 14.96 C
Sensor: Nr:Datum:Temp:Feuchte:Taupunkt:
Aussen-T/F 901 19-08-2019 03:00:00 15.7 C 96 % 15.06 C
902 19-08-2019 03:05:00 15.6 C 97 % 15.13 C
903 19-08-2019 03:10:00 15.6 C 96 % 14.96 C
904 19-08-2019 03:15:00 15.6 C 96 % 14.96 C
905 19-08-2019 03:20:00 15.5 C 96 % 14.86 C
906 19-08-2019 03:25:00 15.4 C 96 % 14.77 C
907 19-08-2019 03:30:00 15.3 C 96 % 14.67 C
908 19-08-2019 03:35:00 15.3 C 96 % 14.67 C
909 19-08-2019 03:40:00 15.2 C 96 % 14.57 C
910 19-08-2019 03:45:00 15.2 C 96 % 14.57 C
911 19-08-2019 03:50:00 15.1 C 96 % 14.47 C
912 19-08-2019 03:55:00 15.1 C 96 % 14.47 C
913 19-08-2019 04:00:00 14.9 C 96 % 14.27 C
914 19-08-2019 04:05:00 14.9 C 96 % 14.27 C
915 19-08-2019 04:10:00 14.8 C 96 % 14.17 C
916 19-08-2019 04:15:00 14.8 C 96 % 14.17 C
917 19-08-2019 04:20:00 14.8 C 96 % 14.17 C
918 19-08-2019 04:25:00 14.8 C 96 % 14.17 C
919 19-08-2019 04:30:00 14.7 C 96 % 14.07 C
920 19-08-2019 04:35:00 14.7 C 96 % 14.07 C
921 19-08-2019 04:40:00 14.7 C 96 % 14.07 C
922 19-08-2019 04:45:00 14.7 C 96 % 14.07 C
923 19-08-2019 04:50:00 14.8 C 97 % 14.33 C
924 19-08-2019 04:55:00 14.8 C 97 % 14.33 C
925 19-08-2019 05:00:00 14.9 C 97 % 14.43 C
Sensor: Nr:Datum:Temp:Feuchte:Taupunkt:
Aussen-T/F 926 19-08-2019 05:05:00 15 C 97 % 14.53 C
927 19-08-2019 05:10:00 15.1 C 97 % 14.63 C
928 19-08-2019 05:15:00 15.1 C 97 % 14.63 C
929 19-08-2019 05:20:00 15.2 C 97 % 14.73 C
930 19-08-2019 05:25:00 15.2 C 97 % 14.73 C
931 19-08-2019 05:30:00 15.2 C 97 % 14.73 C
932 19-08-2019 05:35:00 15.2 C 97 % 14.73 C
933 19-08-2019 05:40:00 15.2 C 97 % 14.73 C
934 19-08-2019 05:45:00 15.2 C 97 % 14.73 C
935 19-08-2019 05:50:00 15.1 C 97 % 14.63 C
936 19-08-2019 05:55:00 15.1 C 97 % 14.63 C
937 19-08-2019 06:00:00 14.9 C 97 % 14.43 C
938 19-08-2019 06:05:00 14.9 C 97 % 14.43 C
939 19-08-2019 06:10:00 14.8 C 96 % 14.17 C
940 19-08-2019 06:15:00 14.7 C 96 % 14.07 C
941 19-08-2019 06:20:00 14.6 C 97 % 14.13 C
942 19-08-2019 06:25:00 14.6 C 97 % 14.13 C
943 19-08-2019 06:30:00 14.6 C 97 % 14.13 C
944 19-08-2019 06:35:00 14.5 C 97 % 14.03 C
945 19-08-2019 06:40:00 14.4 C 97 % 13.93 C
946 19-08-2019 06:45:00 14.4 C 97 % 13.93 C
947 19-08-2019 06:50:00 14.5 C 97 % 14.03 C
948 19-08-2019 06:55:00 14.5 C 97 % 14.03 C
949 19-08-2019 07:00:00 14.5 C 97 % 14.03 C
950 19-08-2019 07:05:00 14.6 C 97 % 14.13 C
Sensor: Nr:Datum:Temp:Feuchte:Taupunkt:
Aussen-T/F 951 19-08-2019 07:10:00 14.6 C 97 % 14.13 C
952 19-08-2019 07:15:00 14.6 C 97 % 14.13 C
953 19-08-2019 07:20:00 14.7 C 97 % 14.23 C
954 19-08-2019 07:25:00 14.8 C 97 % 14.33 C
955 19-08-2019 07:30:00 15 C 97 % 14.53 C
956 19-08-2019 07:35:00 15.2 C 97 % 14.73 C
957 19-08-2019 07:40:00 15.3 C 98 % 14.99 C
958 19-08-2019 07:45:00 15.6 C 97 % 15.13 C
959 19-08-2019 07:50:00 15.7 C 97 % 15.23 C
960 19-08-2019 07:55:00 15.7 C 98 % 15.38 C
961 19-08-2019 08:00:00 15.7 C 97 % 15.23 C
962 19-08-2019 08:05:00 15.6 C 97 % 15.13 C
963 19-08-2019 08:10:00 15.6 C 97 % 15.13 C
964 19-08-2019 08:15:00 15.6 C 97 % 15.13 C
965 19-08-2019 08:20:00 15.6 C 97 % 15.13 C
966 19-08-2019 08:25:00 15.6 C 97 % 15.13 C
967 19-08-2019 08:30:00 15.7 C 97 % 15.23 C
968 19-08-2019 08:35:00 15.7 C 97 % 15.23 C
969 19-08-2019 08:40:00 15.7 C 97 % 15.23 C
970 19-08-2019 08:45:00 15.7 C 97 % 15.23 C
971 19-08-2019 08:50:00 15.7 C 97 % 15.23 C
972 19-08-2019 08:55:00 15.7 C 97 % 15.23 C
973 19-08-2019 09:00:00 15.8 C 97 % 15.32 C
974 19-08-2019 09:05:00 15.8 C 97 % 15.32 C
975 19-08-2019 09:10:00 15.8 C 97 % 15.32 C
Sensor: Nr:Datum:Temp:Feuchte:Taupunkt:
Aussen-T/F 976 19-08-2019 09:15:00 15.9 C 97 % 15.42 C
977 19-08-2019 09:20:00 16 C 97 % 15.52 C
978 19-08-2019 09:25:00 15.9 C 97 % 15.42 C
979 19-08-2019 09:30:00 15.9 C 97 % 15.42 C
980 19-08-2019 09:35:00 15.9 C 97 % 15.42 C
981 19-08-2019 09:40:00 15.9 C 96 % 15.26 C
982 19-08-2019 09:45:00 15.9 C 96 % 15.26 C
983 19-08-2019 09:50:00 15.9 C 96 % 15.26 C
984 19-08-2019 09:55:00 16 C 95 % 15.2 C
985 19-08-2019 10:00:00 16.1 C 95 % 15.3 C
986 19-08-2019 10:05:00 15.9 C 94 % 14.94 C
987 19-08-2019 10:10:00 15.9 C 94 % 14.94 C
988 19-08-2019 10:15:00 16.1 C 90 % 14.46 C
989 19-08-2019 10:20:00 16.3 C 88 % 14.31 C
990 19-08-2019 10:25:00 16.6 C 88 % 14.6 C
991 19-08-2019 10:30:00 16.8 C 88 % 14.8 C
992 19-08-2019 10:35:00 16.9 C 87 % 14.72 C
993 19-08-2019 10:40:00 17 C 83 % 14.09 C
994 19-08-2019 10:45:00 17.2 C 83 % 14.29 C
995 19-08-2019 10:50:00 17.3 C 81 % 14.01 C
996 19-08-2019 10:55:00 17.5 C 81 % 14.2 C
997 19-08-2019 11:00:00 17.8 C 80 % 14.31 C
998 19-08-2019 11:05:00 18 C 79 % 14.31 C
999 19-08-2019 11:10:00 18.2 C 80 % 14.69 C
1000 19-08-2019 11:15:00 18.3 C 77 % 14.2 C
Sensor: Nr:Datum:Temp:Feuchte:Taupunkt:
Aussen-T/F 1001 19-08-2019 11:20:00 18.5 C 76 % 14.19 C
1002 19-08-2019 11:25:00 18.6 C 74 % 13.88 C
1003 19-08-2019 11:30:00 18.7 C 75 % 14.18 C
1004 19-08-2019 11:35:00 18.7 C 73 % 13.76 C
1005 19-08-2019 11:40:00 18.8 C 72 % 13.65 C
1006 19-08-2019 11:45:00 18.9 C 70 % 13.31 C
1007 19-08-2019 11:50:00 19 C 71 % 13.63 C
1008 19-08-2019 11:55:00 19.2 C 70 % 13.6 C
1009 19-08-2019 12:00:00 19.3 C 70 % 13.69 C
1010 19-08-2019 12:05:00 19.4 C 70 % 13.79 C
1011 19-08-2019 12:10:00 19.8 C 67 % 13.5 C
1012 19-08-2019 12:15:00 20 C 67 % 13.69 C
1013 19-08-2019 12:20:00 20.2 C 65 % 13.41 C
1014 19-08-2019 12:25:00 20.4 C 64 % 13.37 C
1015 19-08-2019 12:30:00 20.6 C 63 % 13.31 C
1016 19-08-2019 12:35:00 20.7 C 62 % 13.16 C
1017 19-08-2019 12:40:00 20.6 C 63 % 13.31 C
1018 19-08-2019 12:45:00 20.7 C 61 % 12.91 C
1019 19-08-2019 12:50:00 20.8 C 62 % 13.26 C
1020 19-08-2019 12:55:00 20.8 C 60 % 12.76 C
1021 19-08-2019 13:00:00 20.8 C 61 % 13.01 C
1022 19-08-2019 13:05:00 20.8 C 60 % 12.76 C
1023 19-08-2019 13:10:00 20.9 C 61 % 13.1 C
1024 19-08-2019 13:15:00 21.1 C 59 % 12.78 C
1025 19-08-2019 13:20:00 21.3 C 57 % 12.44 C
Sensor: Nr:Datum:Temp:Feuchte:Taupunkt:
Aussen-T/F 1026 19-08-2019 13:25:00 21.5 C 59 % 13.15 C
1027 19-08-2019 13:30:00 21.6 C 57 % 12.72 C
1028 19-08-2019 13:35:00 21.8 C 61 % 13.95 C
1029 19-08-2019 13:40:00 22 C 56 % 12.82 C
1030 19-08-2019 13:45:00 22.1 C 57 % 13.19 C
1031 19-08-2019 13:50:00 22.1 C 56 % 12.92 C
1032 19-08-2019 13:55:00 22.3 C 56 % 13.1 C
1033 19-08-2019 14:00:00 22.4 C 55 % 12.92 C
1034 19-08-2019 14:05:00 22.4 C 56 % 13.2 C
1035 19-08-2019 14:10:00 22.6 C 54 % 12.83 C
1036 19-08-2019 14:15:00 22.5 C 55 % 13.01 C
1037 19-08-2019 14:20:00 22.5 C 55 % 13.01 C
1038 19-08-2019 14:25:00 22.7 C 55 % 13.2 C
1039 19-08-2019 14:30:00 22.8 C 52 % 12.43 C
1040 19-08-2019 14:35:00 23.1 C 54 % 13.29 C
1041 19-08-2019 14:40:00 23.2 C 52 % 12.8 C
1042 19-08-2019 14:45:00 23.2 C 53 % 13.09 C
1043 19-08-2019 14:50:00 23.1 C 51 % 12.42 C
1044 19-08-2019 14:55:00 23 C 54 % 13.2 C
1045 19-08-2019 15:00:00 23.2 C 52 % 12.8 C
1046 19-08-2019 15:05:00 23.3 C 51 % 12.6 C
1047 19-08-2019 15:10:00 23.4 C 50 % 12.39 C
1048 19-08-2019 15:15:00 23.4 C 52 % 12.99 C
1049 19-08-2019 15:20:00 23.4 C 50 % 12.39 C
1050 19-08-2019 15:25:00 23.6 C 49 % 12.27 C
Sensor: Nr:Datum:Temp:Feuchte:Taupunkt:
Aussen-T/F 1051 19-08-2019 15:30:00 23.6 C 49 % 12.27 C
1052 19-08-2019 15:35:00 23.7 C 49 % 12.36 C
1053 19-08-2019 15:40:00 23.8 C 53 % 13.65 C
1054 19-08-2019 15:45:00 23.7 C 52 % 13.26 C
1055 19-08-2019 15:50:00 23.4 C 51 % 12.69 C
1056 19-08-2019 15:55:00 23.1 C 50 % 12.11 C
1057 19-08-2019 16:00:00 22.8 C 57 % 13.84 C
1058 19-08-2019 16:05:00 22.6 C 55 % 13.11 C
1059 19-08-2019 16:10:00 22.4 C 54 % 12.64 C
1060 19-08-2019 16:15:00 22.7 C 52 % 12.34 C
1061 19-08-2019 16:20:00 23.2 C 51 % 12.51 C
1062 19-08-2019 16:25:00 23.7 C 54 % 13.84 C
1063 19-08-2019 16:30:00 24.3 C 51 % 13.52 C
1064 19-08-2019 16:35:00 24.4 C 50 % 13.31 C
1065 19-08-2019 16:40:00 24.7 C 46 % 12.31 C
1066 19-08-2019 16:45:00 24.8 C 46 % 12.4 C
1067 19-08-2019 16:50:00 24.9 C 46 % 12.49 C
1068 19-08-2019 16:55:00 24.9 C 46 % 12.49 C
1069 19-08-2019 17:00:00 24.9 C 48 % 13.14 C
1070 19-08-2019 17:05:00 24.8 C 49 % 13.36 C
1071 19-08-2019 17:10:00 24.7 C 45 % 11.97 C
1072 19-08-2019 17:15:00 24.4 C 49 % 13 C
1073 19-08-2019 17:20:00 24.6 C 44 % 11.54 C
1074 19-08-2019 17:25:00 24.2 C 48 % 12.5 C
1075 19-08-2019 17:30:00 23.8 C 47 % 11.82 C
Sensor: Nr:Datum:Temp:Feuchte:Taupunkt:
Aussen-T/F 1076 19-08-2019 17:35:00 23.6 C 49 % 12.27 C
1077 19-08-2019 17:40:00 23.4 C 49 % 12.08 C
1078 19-08-2019 17:45:00 23.4 C 50 % 12.39 C
1079 19-08-2019 17:50:00 23.3 C 54 % 13.47 C
1080 19-08-2019 17:55:00 23.2 C 49 % 11.9 C
1081 19-08-2019 18:00:00 23.2 C 50 % 12.21 C
1082 19-08-2019 18:05:00 23.2 C 49 % 11.9 C
1083 19-08-2019 18:10:00 23.3 C 49 % 11.99 C
1084 19-08-2019 18:15:00 23.4 C 49 % 12.08 C
1085 19-08-2019 18:20:00 23.6 C 49 % 12.27 C
1086 19-08-2019 18:25:00 23.8 C 50 % 12.76 C
1087 19-08-2019 18:30:00 23.9 C 47 % 11.91 C
1088 19-08-2019 18:35:00 23.8 C 50 % 12.76 C
1089 19-08-2019 18:40:00 23.6 C 50 % 12.57 C
1090 19-08-2019 18:45:00 23.3 C 54 % 13.47 C
1091 19-08-2019 18:50:00 23.4 C 60 % 15.19 C
1092 19-08-2019 18:55:00 23.7 C 49 % 12.36 C
1093 19-08-2019 19:00:00 24.1 C 52 % 13.63 C
1094 19-08-2019 19:05:00 24.4 C 49 % 13 C
1095 19-08-2019 19:10:00 24.4 C 49 % 13 C
1096 19-08-2019 19:15:00 24 C 47 % 12 C
1097 19-08-2019 19:20:00 23.6 C 54 % 13.75 C
1098 19-08-2019 19:25:00 23.1 C 51 % 12.42 C
1099 19-08-2019 19:30:00 22.7 C 54 % 12.92 C
1100 19-08-2019 19:35:00 22.3 C 59 % 13.9 C
Sensor: Nr:Datum:Temp:Feuchte:Taupunkt:
Aussen-T/F 1101 19-08-2019 19:40:00 22.1 C 63 % 14.73 C
1102 19-08-2019 19:45:00 21.8 C 67 % 15.4 C
1103 19-08-2019 19:50:00 21.6 C 66 % 14.98 C
1104 19-08-2019 19:55:00 21.4 C 65 % 14.55 C
1105 19-08-2019 20:00:00 21.2 C 67 % 14.83 C
1106 19-08-2019 20:05:00 21 C 66 % 14.41 C
1107 19-08-2019 20:10:00 20.8 C 66 % 14.22 C
1108 19-08-2019 20:15:00 20.5 C 68 % 14.39 C
1109 19-08-2019 20:20:00 20.2 C 70 % 14.56 C
1110 19-08-2019 20:25:00 19.8 C 70 % 14.17 C
1111 19-08-2019 20:30:00 19.4 C 69 % 13.57 C
1112 19-08-2019 20:35:00 19.2 C 71 % 13.82 C
1113 19-08-2019 20:40:00 18.9 C 71 % 13.53 C
1114 19-08-2019 20:45:00 18.7 C 72 % 13.55 C
1115 19-08-2019 20:50:00 18.6 C 73 % 13.67 C
1116 19-08-2019 20:55:00 18.3 C 73 % 13.38 C
1117 19-08-2019 21:00:00 18.1 C 73 % 13.19 C
1118 19-08-2019 21:05:00 17.9 C 73 % 12.99 C
1119 19-08-2019 21:10:00 17.7 C 73 % 12.8 C
1120 19-08-2019 21:15:00 17.6 C 75 % 13.12 C
1121 19-08-2019 21:20:00 17.4 C 75 % 12.93 C
1122 19-08-2019 21:25:00 17.3 C 75 % 12.83 C
1123 19-08-2019 21:30:00 17.2 C 74 % 12.53 C
1124 19-08-2019 21:35:00 17.1 C 75 % 12.64 C
1125 19-08-2019 21:40:00 17 C 76 % 12.74 C
Sensor: Nr:Datum:Temp:Feuchte:Taupunkt:
Aussen-T/F 1126 19-08-2019 21:45:00 16.9 C 76 % 12.65 C
1127 19-08-2019 21:50:00 16.8 C 76 % 12.55 C
1128 19-08-2019 21:55:00 16.7 C 77 % 12.65 C
1129 19-08-2019 22:00:00 16.6 C 77 % 12.55 C
1130 19-08-2019 22:05:00 16.6 C 79 % 12.95 C
1131 19-08-2019 22:10:00 16.6 C 79 % 12.95 C
1132 19-08-2019 22:15:00 16.6 C 79 % 12.95 C
1133 19-08-2019 22:20:00 16.6 C 81 % 13.33 C
1134 19-08-2019 22:25:00 16.6 C 82 % 13.52 C
1135 19-08-2019 22:30:00 16.6 C 81 % 13.33 C
1136 19-08-2019 22:35:00 16.6 C 81 % 13.33 C
1137 19-08-2019 22:40:00 16.5 C 81 % 13.23 C
1138 19-08-2019 22:45:00 16.4 C 82 % 13.32 C
1139 19-08-2019 22:50:00 16.3 C 81 % 13.04 C
1140 19-08-2019 22:55:00 16.2 C 81 % 12.94 C
1141 19-08-2019 23:00:00 16 C 81 % 12.74 C
1142 19-08-2019 23:05:00 15.8 C 82 % 12.74 C
1143 19-08-2019 23:10:00 15.7 C 82 % 12.64 C
1144 19-08-2019 23:15:00 15.5 C 83 % 12.63 C
1145 19-08-2019 23:20:00 15.3 C 83 % 12.43 C
1146 19-08-2019 23:25:00 15.2 C 83 % 12.33 C
1147 19-08-2019 23:30:00 15.1 C 84 % 12.42 C
1148 19-08-2019 23:35:00 15 C 84 % 12.32 C
1149 19-08-2019 23:40:00 14.9 C 85 % 12.4 C
1150 19-08-2019 23:45:00 14.8 C 85 % 12.3 C
Sensor: Nr:Datum:Temp:Feuchte:Taupunkt:
Aussen-T/F 1151 19-08-2019 23:50:00 14.7 C 85 % 12.21 C
1152 19-08-2019 23:55:00 14.6 C 86 % 12.29 C
1153 20-08-2019 00:00:00 14.4 C 86 % 12.09 C
1154 20-08-2019 00:05:00 14.3 C 86 % 11.99 C
1155 20-08-2019 00:10:00 14.2 C 87 % 12.07 C
1156 20-08-2019 00:15:00 14.1 C 86 % 11.8 C
1157 20-08-2019 00:20:00 14 C 86 % 11.7 C
1158 20-08-2019 00:25:00 14 C 86 % 11.7 C
1159 20-08-2019 00:30:00 13.9 C 87 % 11.77 C
1160 20-08-2019 00:35:00 13.9 C 87 % 11.77 C
1161 20-08-2019 00:40:00 13.8 C 87 % 11.68 C
1162 20-08-2019 00:45:00 13.8 C 87 % 11.68 C
1163 20-08-2019 00:50:00 13.7 C 87 % 11.58 C
1164 20-08-2019 00:55:00 13.6 C 87 % 11.48 C
1165 20-08-2019 01:00:00 13.6 C 88 % 11.65 C
1166 20-08-2019 01:05:00 13.5 C 88 % 11.55 C
1167 20-08-2019 01:10:00 13.4 C 88 % 11.45 C
1168 20-08-2019 01:15:00 13.4 C 88 % 11.45 C
1169 20-08-2019 01:20:00 13.3 C 88 % 11.36 C
1170 20-08-2019 01:25:00 13.2 C 88 % 11.26 C
1171 20-08-2019 01:30:00 13.2 C 88 % 11.26 C
1172 20-08-2019 01:35:00 13.1 C 89 % 11.33 C
1173 20-08-2019 01:40:00 13.1 C 89 % 11.33 C
1174 20-08-2019 01:45:00 13 C 89 % 11.23 C
1175 20-08-2019 01:50:00 12.9 C 89 % 11.13 C
Sensor: Nr:Datum:Temp:Feuchte:Taupunkt:
Aussen-T/F 1176 20-08-2019 01:55:00 12.9 C 89 % 11.13 C
1177 20-08-2019 02:00:00 12.9 C 90 % 11.3 C
1178 20-08-2019 02:05:00 12.9 C 90 % 11.3 C
1179 20-08-2019 02:10:00 12.9 C 89 % 11.13 C
1180 20-08-2019 02:15:00 12.8 C 90 % 11.2 C
1181 20-08-2019 02:20:00 12.8 C 90 % 11.2 C
1182 20-08-2019 02:25:00 12.8 C 90 % 11.2 C
1183 20-08-2019 02:30:00 12.8 C 90 % 11.2 C
1184 20-08-2019 02:35:00 12.8 C 90 % 11.2 C
1185 20-08-2019 02:40:00 12.8 C 90 % 11.2 C
1186 20-08-2019 02:45:00 12.8 C 90 % 11.2 C
1187 20-08-2019 02:50:00 12.8 C 90 % 11.2 C
1188 20-08-2019 02:55:00 12.8 C 90 % 11.2 C
1189 20-08-2019 03:00:00 12.7 C 90 % 11.1 C
1190 20-08-2019 03:05:00 12.6 C 90 % 11 C
1191 20-08-2019 03:10:00 12.6 C 90 % 11 C
1192 20-08-2019 03:15:00 12.4 C 90 % 10.81 C
1193 20-08-2019 03:20:00 12.3 C 90 % 10.71 C
1194 20-08-2019 03:25:00 12.2 C 91 % 10.78 C
1195 20-08-2019 03:30:00 12.2 C 91 % 10.78 C
1196 20-08-2019 03:35:00 12.1 C 91 % 10.68 C
1197 20-08-2019 03:40:00 12 C 91 % 10.58 C
1198 20-08-2019 03:45:00 11.9 C 91 % 10.48 C
1199 20-08-2019 03:50:00 11.8 C 91 % 10.38 C
1200 20-08-2019 03:55:00 11.8 C 92 % 10.54 C
Sensor: Nr:Datum:Temp:Feuchte:Taupunkt:
Aussen-T/F 1201 20-08-2019 04:00:00 11.7 C 92 % 10.44 C
1202 20-08-2019 04:05:00 11.7 C 92 % 10.44 C
1203 20-08-2019 04:10:00 11.6 C 92 % 10.35 C
1204 20-08-2019 04:15:00 11.4 C 92 % 10.15 C
1205 20-08-2019 04:20:00 11.4 C 92 % 10.15 C
1206 20-08-2019 04:25:00 11.3 C 92 % 10.05 C
1207 20-08-2019 04:30:00 11.3 C 93 % 10.21 C
1208 20-08-2019 04:35:00 11.2 C 93 % 10.11 C
1209 20-08-2019 04:40:00 11.2 C 93 % 10.11 C
1210 20-08-2019 04:45:00 11.1 C 93 % 10.01 C
1211 20-08-2019 04:50:00 11.1 C 93 % 10.01 C
1212 20-08-2019 04:55:00 11.1 C 93 % 10.01 C
1213 20-08-2019 05:00:00 11.1 C 93 % 10.01 C
1214 20-08-2019 05:05:00 11.1 C 93 % 10.01 C
1215 20-08-2019 05:10:00 11.1 C 93 % 10.01 C
1216 20-08-2019 05:15:00 11 C 93 % 9.91 C
1217 20-08-2019 05:20:00 10.9 C 94 % 9.97 C
1218 20-08-2019 05:25:00 10.9 C 94 % 9.97 C
1219 20-08-2019 05:30:00 10.9 C 94 % 9.97 C
1220 20-08-2019 05:35:00 10.9 C 94 % 9.97 C
1221 20-08-2019 05:40:00 10.8 C 94 % 9.87 C
1222 20-08-2019 05:45:00 10.7 C 94 % 9.77 C
1223 20-08-2019 05:50:00 10.7 C 94 % 9.77 C
1224 20-08-2019 05:55:00 10.7 C 94 % 9.77 C
1225 20-08-2019 06:00:00 10.6 C 94 % 9.68 C
Sensor: Nr:Datum:Temp:Feuchte:Taupunkt:
Aussen-T/F 1226 20-08-2019 06:05:00 10.6 C 94 % 9.68 C
1227 20-08-2019 06:10:00 10.5 C 94 % 9.58 C
1228 20-08-2019 06:15:00 10.4 C 94 % 9.48 C
1229 20-08-2019 06:20:00 10.4 C 94 % 9.48 C
1230 20-08-2019 06:25:00 10.4 C 94 % 9.48 C
1231 20-08-2019 06:30:00 10.4 C 95 % 9.63 C
1232 20-08-2019 06:35:00 10.3 C 95 % 9.54 C
1233 20-08-2019 06:40:00 10.4 C 95 % 9.63 C
1234 20-08-2019 06:45:00 10.4 C 95 % 9.63 C
1235 20-08-2019 06:50:00 10.3 C 95 % 9.54 C
1236 20-08-2019 06:55:00 10.4 C 95 % 9.63 C
1237 20-08-2019 07:00:00 10.4 C 95 % 9.63 C
1238 20-08-2019 07:05:00 10.6 C 95 % 9.83 C
1239 20-08-2019 07:10:00 10.7 C 95 % 9.93 C
1240 20-08-2019 07:15:00 10.7 C 95 % 9.93 C
1241 20-08-2019 07:20:00 10.7 C 95 % 9.93 C
1242 20-08-2019 07:25:00 10.7 C 95 % 9.93 C
1243 20-08-2019 07:30:00 10.7 C 95 % 9.93 C
1244 20-08-2019 07:35:00 10.8 C 95 % 10.03 C
1245 20-08-2019 07:40:00 10.9 C 96 % 10.29 C
1246 20-08-2019 07:45:00 10.9 C 96 % 10.29 C
1247 20-08-2019 07:50:00 11.1 C 96 % 10.49 C
1248 20-08-2019 07:55:00 11.2 C 96 % 10.59 C
1249 20-08-2019 08:00:00 11.2 C 96 % 10.59 C
1250 20-08-2019 08:05:00 11.3 C 96 % 10.69 C
Sensor: Nr:Datum:Temp:Feuchte:Taupunkt:
Aussen-T/F 1251 20-08-2019 08:10:00 11.3 C 96 % 10.69 C
1252 20-08-2019 08:15:00 11.3 C 95 % 10.53 C
1253 20-08-2019 08:20:00 11.3 C 95 % 10.53 C
1254 20-08-2019 08:25:00 11.3 C 95 % 10.53 C
1255 20-08-2019 08:30:00 11.4 C 95 % 10.63 C
1256 20-08-2019 08:35:00 11.4 C 96 % 10.79 C
1257 20-08-2019 08:40:00 11.6 C 96 % 10.98 C
1258 20-08-2019 08:45:00 11.6 C 96 % 10.98 C
1259 20-08-2019 08:50:00 11.7 C 96 % 11.08 C
1260 20-08-2019 08:55:00 11.7 C 95 % 10.93 C
1261 20-08-2019 09:00:00 11.8 C 95 % 11.03 C
1262 20-08-2019 09:05:00 11.9 C 96 % 11.28 C
1263 20-08-2019 09:10:00 12 C 96 % 11.38 C
1264 20-08-2019 09:15:00 12.1 C 95 % 11.32 C
1265 20-08-2019 09:20:00 12.2 C 96 % 11.58 C
1266 20-08-2019 09:25:00 12.4 C 96 % 11.78 C
1267 20-08-2019 09:30:00 12.7 C 96 % 12.08 C
1268 20-08-2019 09:35:00 12.8 C 95 % 12.02 C
1269 20-08-2019 09:40:00 13.1 C 95 % 12.32 C
1270 20-08-2019 09:45:00 13.3 C 94 % 12.36 C
1271 20-08-2019 09:50:00 13.4 C 94 % 12.45 C
1272 20-08-2019 09:55:00 13.7 C 93 % 12.59 C
1273 20-08-2019 10:00:00 13.8 C 92 % 12.52 C
1274 20-08-2019 10:05:00 14.1 C 92 % 12.82 C
1275 20-08-2019 10:10:00 14.4 C 91 % 12.95 C
Sensor: Nr:Datum:Temp:Feuchte:Taupunkt:
Aussen-T/F 1276 20-08-2019 10:15:00 14.7 C 90 % 13.08 C
1277 20-08-2019 10:20:00 14.9 C 88 % 12.93 C
1278 20-08-2019 10:25:00 15.2 C 86 % 12.88 C
1279 20-08-2019 10:30:00 15.4 C 86 % 13.07 C
1280 20-08-2019 10:35:00 15.6 C 84 % 12.91 C
1281 20-08-2019 10:40:00 15.9 C 83 % 13.02 C
1282 20-08-2019 10:45:00 16.2 C 82 % 13.13 C
1283 20-08-2019 10:50:00 16.4 C 80 % 12.94 C
1284 20-08-2019 10:55:00 16.6 C 78 % 12.75 C
1285 20-08-2019 11:00:00 16.7 C 77 % 12.65 C
1286 20-08-2019 11:05:00 16.9 C 78 % 13.04 C
1287 20-08-2019 11:10:00 17.1 C 76 % 12.84 C
1288 20-08-2019 11:15:00 17.2 C 75 % 12.73 C
1289 20-08-2019 11:20:00 17.3 C 74 % 12.62 C
1290 20-08-2019 11:25:00 17.4 C 75 % 12.93 C
1291 20-08-2019 11:30:00 17.5 C 72 % 12.4 C
1292 20-08-2019 11:35:00 17.5 C 70 % 11.97 C
1293 20-08-2019 11:40:00 17.6 C 72 % 12.5 C
1294 20-08-2019 11:45:00 17.7 C 72 % 12.59 C
1295 20-08-2019 11:50:00 17.8 C 72 % 12.69 C
1296 20-08-2019 11:55:00 17.8 C 70 % 12.26 C
1297 20-08-2019 12:00:00 17.9 C 70 % 12.35 C
1298 20-08-2019 12:05:00 18 C 70 % 12.45 C
1299 20-08-2019 12:10:00 18.2 C 69 % 12.42 C
1300 20-08-2019 12:15:00 18.3 C 69 % 12.52 C
Sensor: Nr:Datum:Temp:Feuchte:Taupunkt:
Aussen-T/F 1301 20-08-2019 12:20:00 18.5 C 69 % 12.71 C
1302 20-08-2019 12:25:00 18.7 C 67 % 12.45 C
1303 20-08-2019 12:30:00 18.8 C 65 % 12.09 C
1304 20-08-2019 12:35:00 18.9 C 65 % 12.18 C
1305 20-08-2019 12:40:00 18.9 C 65 % 12.18 C
1306 20-08-2019 12:45:00 19.1 C 64 % 12.14 C
1307 20-08-2019 12:50:00 19.1 C 64 % 12.14 C
1308 20-08-2019 12:55:00 19.1 C 65 % 12.37 C
1309 20-08-2019 13:00:00 19.2 C 63 % 11.99 C
1310 20-08-2019 13:05:00 19.2 C 64 % 12.23 C
1311 20-08-2019 13:10:00 19.3 C 63 % 12.09 C
1312 20-08-2019 13:15:00 19.3 C 62 % 11.84 C
1313 20-08-2019 13:20:00 19.3 C 63 % 12.09 C
1314 20-08-2019 13:25:00 19.4 C 62 % 11.94 C
1315 20-08-2019 13:30:00 19.6 C 63 % 12.37 C
1316 20-08-2019 13:35:00 19.7 C 63 % 12.46 C
1317 20-08-2019 13:40:00 19.7 C 61 % 11.97 C
1318 20-08-2019 13:45:00 19.8 C 61 % 12.07 C
1319 20-08-2019 13:50:00 19.9 C 62 % 12.41 C
1320 20-08-2019 13:55:00 19.9 C 59 % 11.66 C
1321 20-08-2019 14:00:00 20.1 C 58 % 11.58 C
1322 20-08-2019 14:05:00 20.2 C 59 % 11.94 C
1323 20-08-2019 14:10:00 20.2 C 60 % 12.19 C
1324 20-08-2019 14:15:00 20.3 C 59 % 12.03 C
1325 20-08-2019 14:20:00 20.4 C 59 % 12.12 C
Sensor: Nr:Datum:Temp:Feuchte:Taupunkt:
Aussen-T/F 1326 20-08-2019 14:25:00 20.4 C 57 % 11.6 C
1327 20-08-2019 14:30:00 20.4 C 56 % 11.33 C
1328 20-08-2019 14:35:00 20.5 C 58 % 11.96 C
1329 20-08-2019 14:40:00 20.6 C 56 % 11.52 C
1330 20-08-2019 14:45:00 20.6 C 56 % 11.52 C
1331 20-08-2019 14:50:00 20.7 C 55 % 11.34 C
1332 20-08-2019 14:55:00 20.8 C 55 % 11.43 C
1333 20-08-2019 15:00:00 20.8 C 55 % 11.43 C
1334 20-08-2019 15:05:00 20.9 C 56 % 11.8 C
1335 20-08-2019 15:10:00 20.9 C 57 % 12.07 C
1336 20-08-2019 15:15:00 21 C 56 % 11.89 C
1337 20-08-2019 15:20:00 21 C 56 % 11.89 C
1338 20-08-2019 15:25:00 21.1 C 58 % 12.52 C
1339 20-08-2019 15:30:00 21.1 C 57 % 12.25 C
1340 20-08-2019 15:35:00 21.2 C 56 % 12.08 C
1341 20-08-2019 15:40:00 21.2 C 56 % 12.08 C
1342 20-08-2019 15:45:00 21.3 C 55 % 11.9 C
1343 20-08-2019 15:50:00 21.4 C 55 % 11.99 C
1344 20-08-2019 15:55:00 21.4 C 58 % 12.8 C
1345 20-08-2019 16:00:00 21.4 C 56 % 12.27 C
1346 20-08-2019 16:05:00 21.4 C 56 % 12.27 C
1347 20-08-2019 16:10:00 21.4 C 55 % 11.99 C
1348 20-08-2019 16:15:00 21.4 C 55 % 11.99 C
1349 20-08-2019 16:20:00 21.4 C 55 % 11.99 C
1350 20-08-2019 16:25:00 21.4 C 57 % 12.53 C
Sensor: Nr:Datum:Temp:Feuchte:Taupunkt:
Aussen-T/F 1351 20-08-2019 16:30:00 21.6 C 58 % 12.99 C
1352 20-08-2019 16:35:00 21.6 C 60 % 13.51 C
1353 20-08-2019 16:40:00 21.6 C 61 % 13.76 C
1354 20-08-2019 16:45:00 21.4 C 61 % 13.57 C
1355 20-08-2019 16:50:00 21.3 C 65 % 14.46 C
1356 20-08-2019 16:55:00 21.1 C 67 % 14.74 C
1357 20-08-2019 17:00:00 20.9 C 65 % 14.08 C
1358 20-08-2019 17:05:00 20.7 C 62 % 13.16 C
1359 20-08-2019 17:10:00 20.7 C 60 % 12.66 C
1360 20-08-2019 17:15:00 20.8 C 58 % 12.24 C
1361 20-08-2019 17:20:00 20.8 C 59 % 12.5 C
1362 20-08-2019 17:25:00 20.8 C 58 % 12.24 C
1363 20-08-2019 17:30:00 20.7 C 61 % 12.91 C
1364 20-08-2019 17:35:00 20.7 C 69 % 14.81 C
1365 20-08-2019 17:40:00 20.7 C 69 % 14.81 C
1366 20-08-2019 17:45:00 20.5 C 69 % 14.62 C
1367 20-08-2019 17:50:00 20.4 C 71 % 14.97 C
1368 20-08-2019 17:55:00 20.5 C 72 % 15.28 C
1369 20-08-2019 18:00:00 20.6 C 73 % 15.59 C
1370 20-08-2019 18:05:00 20.6 C 73 % 15.59 C
1371 20-08-2019 18:10:00 20.7 C 75 % 16.11 C
1372 20-08-2019 18:15:00 20.7 C 74 % 15.9 C
1373 20-08-2019 18:20:00 20.7 C 75 % 16.11 C
1374 20-08-2019 18:25:00 20.5 C 71 % 15.06 C
1375 20-08-2019 18:30:00 20.4 C 74 % 15.61 C
Sensor: Nr:Datum:Temp:Feuchte:Taupunkt:
Aussen-T/F 1376 20-08-2019 18:35:00 20.3 C 74 % 15.51 C
1377 20-08-2019 18:40:00 20.2 C 74 % 15.42 C
1378 20-08-2019 18:45:00 20.1 C 74 % 15.32 C
1379 20-08-2019 18:50:00 19.9 C 75 % 15.34 C
1380 20-08-2019 18:55:00 19.8 C 75 % 15.24 C
1381 20-08-2019 19:00:00 19.7 C 75 % 15.15 C
1382 20-08-2019 19:05:00 19.5 C 74 % 14.74 C
1383 20-08-2019 19:10:00 19.3 C 74 % 14.55 C
1384 20-08-2019 19:15:00 19.2 C 75 % 14.66 C
1385 20-08-2019 19:20:00 19 C 75 % 14.47 C
1386 20-08-2019 19:25:00 18.9 C 75 % 14.37 C
1387 20-08-2019 19:30:00 18.8 C 75 % 14.28 C
1388 20-08-2019 19:35:00 18.7 C 75 % 14.18 C
1389 20-08-2019 19:40:00 18.6 C 75 % 14.08 C
1390 20-08-2019 19:45:00 18.4 C 75 % 13.89 C
1391 20-08-2019 19:50:00 18.3 C 75 % 13.79 C
1392 20-08-2019 19:55:00 18.2 C 75 % 13.7 C
1393 20-08-2019 20:00:00 18.1 C 75 % 13.6 C
1394 20-08-2019 20:05:00 17.9 C 75 % 13.41 C
1395 20-08-2019 20:10:00 17.8 C 75 % 13.31 C
1396 20-08-2019 20:15:00 17.7 C 74 % 13.01 C
1397 20-08-2019 20:20:00 17.6 C 74 % 12.91 C
1398 20-08-2019 20:25:00 17.6 C 74 % 12.91 C
1399 20-08-2019 20:30:00 17.5 C 76 % 13.23 C
1400 20-08-2019 20:35:00 17.4 C 76 % 13.13 C
Sensor: Nr:Datum:Temp:Feuchte:Taupunkt:
Aussen-T/F 1401 20-08-2019 20:40:00 17.4 C 77 % 13.33 C
1402 20-08-2019 20:45:00 17.4 C 77 % 13.33 C
1403 20-08-2019 20:50:00 17.3 C 78 % 13.43 C
1404 20-08-2019 20:55:00 17.3 C 78 % 13.43 C
1405 20-08-2019 21:00:00 17.3 C 79 % 13.63 C
1406 20-08-2019 21:05:00 17.2 C 79 % 13.53 C
1407 20-08-2019 21:10:00 17.1 C 79 % 13.43 C
1408 20-08-2019 21:15:00 17.1 C 80 % 13.62 C
1409 20-08-2019 21:20:00 16.9 C 79 % 13.24 C
1410 20-08-2019 21:25:00 16.8 C 80 % 13.33 C
1411 20-08-2019 21:30:00 16.8 C 80 % 13.33 C
1412 20-08-2019 21:35:00 16.7 C 80 % 13.23 C
1413 20-08-2019 21:40:00 16.5 C 80 % 13.04 C
1414 20-08-2019 21:45:00 16.3 C 80 % 12.85 C
1415 20-08-2019 21:50:00 16.3 C 81 % 13.04 C
1416 20-08-2019 21:55:00 16.2 C 82 % 13.13 C
1417 20-08-2019 22:00:00 16.1 C 83 % 13.21 C
1418 20-08-2019 22:05:00 16.1 C 83 % 13.21 C
1419 20-08-2019 22:10:00 16.1 C 83 % 13.21 C
1420 20-08-2019 22:15:00 16 C 84 % 13.3 C
1421 20-08-2019 22:20:00 15.9 C 84 % 13.2 C
1422 20-08-2019 22:25:00 15.9 C 84 % 13.2 C
1423 20-08-2019 22:30:00 15.9 C 84 % 13.2 C
1424 20-08-2019 22:35:00 15.9 C 84 % 13.2 C
1425 20-08-2019 22:40:00 15.9 C 84 % 13.2 C
Sensor: Nr:Datum:Temp:Feuchte:Taupunkt:
Aussen-T/F 1426 20-08-2019 22:45:00 15.8 C 84 % 13.1 C
1427 20-08-2019 22:50:00 15.8 C 84 % 13.1 C
1428 20-08-2019 22:55:00 15.7 C 84 % 13.01 C
1429 20-08-2019 23:00:00 15.7 C 84 % 13.01 C
1430 20-08-2019 23:05:00 15.6 C 85 % 13.09 C
1431 20-08-2019 23:10:00 15.5 C 85 % 12.99 C
1432 20-08-2019 23:15:00 15.4 C 85 % 12.89 C
1433 20-08-2019 23:20:00 15.3 C 85 % 12.79 C
1434 20-08-2019 23:25:00 15.2 C 85 % 12.7 C
1435 20-08-2019 23:30:00 15.1 C 85 % 12.6 C
1436 20-08-2019 23:35:00 15.1 C 85 % 12.6 C
1437 20-08-2019 23:40:00 15 C 85 % 12.5 C
1438 20-08-2019 23:45:00 14.8 C 85 % 12.3 C
1439 20-08-2019 23:50:00 14.7 C 85 % 12.21 C
1440 20-08-2019 23:55:00 14.7 C 86 % 12.38 C
1441 21-08-2019 00:00:00 14.6 C 86 % 12.29 C
1442 21-08-2019 00:05:00 14.4 C 86 % 12.09 C
1443 21-08-2019 00:10:00 14.3 C 87 % 12.17 C
1444 21-08-2019 00:15:00 14.2 C 87 % 12.07 C
1445 21-08-2019 00:20:00 14.2 C 87 % 12.07 C
1446 21-08-2019 00:25:00 14.1 C 87 % 11.97 C
1447 21-08-2019 00:30:00 14 C 87 % 11.87 C
1448 21-08-2019 00:35:00 14 C 87 % 11.87 C
1449 21-08-2019 00:40:00 13.9 C 88 % 11.95 C
1450 21-08-2019 00:45:00 13.9 C 88 % 11.95 C
Sensor: Nr:Datum:Temp:Feuchte:Taupunkt:
Aussen-T/F 1451 21-08-2019 00:50:00 13.9 C 88 % 11.95 C
1452 21-08-2019 00:55:00 13.9 C 88 % 11.95 C
1453 21-08-2019 01:00:00 13.9 C 88 % 11.95 C
1454 21-08-2019 01:05:00 13.9 C 88 % 11.95 C
1455 21-08-2019 01:10:00 13.8 C 88 % 11.85 C
1456 21-08-2019 01:15:00 13.8 C 88 % 11.85 C
1457 21-08-2019 01:20:00 13.7 C 89 % 11.92 C
1458 21-08-2019 01:25:00 13.6 C 89 % 11.82 C
1459 21-08-2019 01:30:00 13.6 C 89 % 11.82 C
1460 21-08-2019 01:35:00 13.4 C 89 % 11.63 C
1461 21-08-2019 01:40:00 13.4 C 89 % 11.63 C
1462 21-08-2019 01:45:00 13.3 C 89 % 11.53 C
1463 21-08-2019 01:50:00 13.2 C 89 % 11.43 C
1464 21-08-2019 01:55:00 13.1 C 90 % 11.5 C
1465 21-08-2019 02:00:00 13 C 90 % 11.4 C
1466 21-08-2019 02:05:00 12.9 C 90 % 11.3 C
1467 21-08-2019 02:10:00 12.8 C 90 % 11.2 C
1468 21-08-2019 02:15:00 12.8 C 91 % 11.37 C
1469 21-08-2019 02:20:00 12.8 C 91 % 11.37 C
1470 21-08-2019 02:25:00 12.7 C 91 % 11.27 C
1471 21-08-2019 02:30:00 12.7 C 91 % 11.27 C
1472 21-08-2019 02:35:00 12.6 C 91 % 11.17 C
1473 21-08-2019 02:40:00 12.6 C 91 % 11.17 C
1474 21-08-2019 02:45:00 12.4 C 91 % 10.97 C
1475 21-08-2019 02:50:00 12.3 C 91 % 10.87 C
Sensor: Nr:Datum:Temp:Feuchte:Taupunkt:
Aussen-T/F 1476 21-08-2019 02:55:00 12.3 C 91 % 10.87 C
1477 21-08-2019 03:00:00 12.2 C 91 % 10.78 C
1478 21-08-2019 03:05:00 12.2 C 92 % 10.94 C
1479 21-08-2019 03:10:00 12.1 C 92 % 10.84 C
1480 21-08-2019 03:15:00 12.1 C 92 % 10.84 C
1481 21-08-2019 03:20:00 12 C 92 % 10.74 C
1482 21-08-2019 03:25:00 12 C 93 % 10.9 C
1483 21-08-2019 03:30:00 12 C 93 % 10.9 C
1484 21-08-2019 03:35:00 12 C 93 % 10.9 C
1485 21-08-2019 03:40:00 11.9 C 93 % 10.81 C
1486 21-08-2019 03:45:00 11.9 C 93 % 10.81 C
1487 21-08-2019 03:50:00 11.8 C 93 % 10.71 C
1488 21-08-2019 03:55:00 11.7 C 93 % 10.61 C
1489 21-08-2019 04:00:00 11.7 C 93 % 10.61 C
1490 21-08-2019 04:05:00 11.6 C 93 % 10.51 C
1491 21-08-2019 04:10:00 11.4 C 93 % 10.31 C
1492 21-08-2019 04:15:00 11.4 C 93 % 10.31 C
1493 21-08-2019 04:20:00 11.3 C 93 % 10.21 C
1494 21-08-2019 04:25:00 11.3 C 93 % 10.21 C
1495 21-08-2019 04:30:00 11.3 C 94 % 10.37 C
1496 21-08-2019 04:35:00 11.3 C 94 % 10.37 C
1497 21-08-2019 04:40:00 11.2 C 94 % 10.27 C
1498 21-08-2019 04:45:00 11.1 C 94 % 10.17 C
1499 21-08-2019 04:50:00 11.1 C 94 % 10.17 C
1500 21-08-2019 04:55:00 11 C 94 % 10.07 C
Sensor: Nr:Datum:Temp:Feuchte:Taupunkt:
Aussen-T/F 1501 21-08-2019 05:00:00 11 C 94 % 10.07 C
1502 21-08-2019 05:05:00 10.9 C 94 % 9.97 C
1503 21-08-2019 05:10:00 10.9 C 94 % 9.97 C
1504 21-08-2019 05:15:00 10.9 C 94 % 9.97 C
1505 21-08-2019 05:20:00 10.8 C 94 % 9.87 C
1506 21-08-2019 05:25:00 10.7 C 94 % 9.77 C
1507 21-08-2019 05:30:00 10.7 C 94 % 9.77 C
1508 21-08-2019 05:35:00 10.6 C 94 % 9.68 C
1509 21-08-2019 05:40:00 10.6 C 94 % 9.68 C
1510 21-08-2019 05:45:00 10.6 C 94 % 9.68 C
1511 21-08-2019 05:50:00 10.6 C 94 % 9.68 C
1512 21-08-2019 05:55:00 10.5 C 94 % 9.58 C
1513 21-08-2019 06:00:00 10.5 C 94 % 9.58 C
1514 21-08-2019 06:05:00 10.4 C 95 % 9.63 C
1515 21-08-2019 06:10:00 10.4 C 95 % 9.63 C
1516 21-08-2019 06:15:00 10.4 C 95 % 9.63 C
1517 21-08-2019 06:20:00 10.4 C 95 % 9.63 C
1518 21-08-2019 06:25:00 10.3 C 95 % 9.54 C
1519 21-08-2019 06:30:00 10.3 C 95 % 9.54 C
1520 21-08-2019 06:35:00 10.3 C 95 % 9.54 C
1521 21-08-2019 06:40:00 10.3 C 95 % 9.54 C
1522 21-08-2019 06:45:00 10.2 C 95 % 9.44 C
1523 21-08-2019 06:50:00 10.2 C 95 % 9.44 C
1524 21-08-2019 06:55:00 10.2 C 95 % 9.44 C
1525 21-08-2019 07:00:00 10.2 C 95 % 9.44 C
Sensor: Nr:Datum:Temp:Feuchte:Taupunkt:
Aussen-T/F 1526 21-08-2019 07:05:00 10.3 C 95 % 9.54 C
1527 21-08-2019 07:10:00 10.3 C 95 % 9.54 C
1528 21-08-2019 07:15:00 10.3 C 95 % 9.54 C
1529 21-08-2019 07:20:00 10.3 C 95 % 9.54 C
1530 21-08-2019 07:25:00 10.3 C 95 % 9.54 C
1531 21-08-2019 07:30:00 10.3 C 95 % 9.54 C
1532 21-08-2019 07:35:00 10.3 C 95 % 9.54 C
1533 21-08-2019 07:40:00 10.4 C 96 % 9.79 C
1534 21-08-2019 07:45:00 10.5 C 96 % 9.89 C
1535 21-08-2019 07:50:00 10.5 C 96 % 9.89 C
1536 21-08-2019 07:55:00 10.6 C 96 % 9.99 C
1537 21-08-2019 08:00:00 10.6 C 96 % 9.99 C
1538 21-08-2019 08:05:00 10.7 C 96 % 10.09 C
1539 21-08-2019 08:10:00 10.7 C 96 % 10.09 C
1540 21-08-2019 08:15:00 10.7 C 96 % 10.09 C
1541 21-08-2019 08:20:00 10.8 C 96 % 10.19 C
1542 21-08-2019 08:25:00 10.8 C 96 % 10.19 C
1543 21-08-2019 08:30:00 10.9 C 96 % 10.29 C
1544 21-08-2019 08:35:00 10.9 C 96 % 10.29 C
1545 21-08-2019 08:40:00 10.9 C 96 % 10.29 C
1546 21-08-2019 08:45:00 11 C 96 % 10.39 C
1547 21-08-2019 08:50:00 11.1 C 96 % 10.49 C
1548 21-08-2019 08:55:00 11.2 C 96 % 10.59 C
1549 21-08-2019 09:00:00 11.3 C 96 % 10.69 C
1550 21-08-2019 09:05:00 11.4 C 96 % 10.79 C
Sensor: Nr:Datum:Temp:Feuchte:Taupunkt:
Aussen-T/F 1551 21-08-2019 09:10:00 11.6 C 96 % 10.98 C
1552 21-08-2019 09:15:00 11.7 C 96 % 11.08 C
1553 21-08-2019 09:20:00 11.7 C 96 % 11.08 C
1554 21-08-2019 09:25:00 11.8 C 96 % 11.18 C
1555 21-08-2019 09:30:00 11.9 C 96 % 11.28 C
1556 21-08-2019 09:35:00 12 C 96 % 11.38 C
1557 21-08-2019 09:40:00 12.1 C 96 % 11.48 C
1558 21-08-2019 09:45:00 12.2 C 96 % 11.58 C
1559 21-08-2019 09:50:00 12.3 C 96 % 11.68 C
1560 21-08-2019 09:55:00 12.4 C 97 % 11.94 C
1561 21-08-2019 10:00:00 12.5 C 96 % 11.88 C
1562 21-08-2019 10:05:00 12.6 C 96 % 11.98 C
1563 21-08-2019 10:10:00 12.7 C 97 % 12.24 C
1564 21-08-2019 10:15:00 12.9 C 96 % 12.28 C
1565 21-08-2019 10:20:00 13.1 C 96 % 12.48 C
1566 21-08-2019 10:25:00 13.2 C 97 % 12.73 C
1567 21-08-2019 10:30:00 13.4 C 96 % 12.78 C
1568 21-08-2019 10:35:00 13.6 C 97 % 13.13 C
1569 21-08-2019 10:40:00 13.7 C 96 % 13.07 C
1570 21-08-2019 10:45:00 13.9 C 96 % 13.27 C
1571 21-08-2019 10:50:00 14.1 C 96 % 13.47 C
1572 21-08-2019 10:55:00 14.3 C 96 % 13.67 C
1573 21-08-2019 11:00:00 14.5 C 96 % 13.87 C
1574 21-08-2019 11:05:00 14.7 C 96 % 14.07 C
1575 21-08-2019 11:10:00 14.9 C 95 % 14.11 C
Sensor: Nr:Datum:Temp:Feuchte:Taupunkt:
Aussen-T/F 1576 21-08-2019 11:15:00 15.2 C 95 % 14.4 C
1577 21-08-2019 11:20:00 15.4 C 94 % 14.44 C
1578 21-08-2019 11:25:00 15.6 C 93 % 14.47 C
1579 21-08-2019 11:30:00 15.8 C 92 % 14.5 C
1580 21-08-2019 11:35:00 16.1 C 89 % 14.29 C
1581 21-08-2019 11:40:00 16.3 C 86 % 13.95 C
1582 21-08-2019 11:45:00 16.7 C 84 % 13.98 C
1583 21-08-2019 11:50:00 17.1 C 82 % 14 C
1584 21-08-2019 11:55:00 17.4 C 79 % 13.72 C
1585 21-08-2019 12:00:00 17.8 C 76 % 13.52 C
1586 21-08-2019 12:05:00 18.2 C 72 % 13.07 C
1587 21-08-2019 12:10:00 18.5 C 78 % 14.59 C
1588 21-08-2019 12:15:00 18.6 C 79 % 14.89 C
1589 21-08-2019 12:20:00 18.5 C 80 % 14.99 C
1590 21-08-2019 12:25:00 18.3 C 78 % 14.4 C
1591 21-08-2019 12:30:00 18.3 C 68 % 12.3 C
1592 21-08-2019 12:35:00 18.7 C 67 % 12.45 C
1593 21-08-2019 12:40:00 18.9 C 76 % 14.58 C
1594 21-08-2019 12:45:00 18.9 C 70 % 13.31 C
1595 21-08-2019 12:50:00 18.8 C 65 % 12.09 C
1596 21-08-2019 12:55:00 19 C 67 % 12.74 C
1597 21-08-2019 13:00:00 19.2 C 62 % 11.75 C
1598 21-08-2019 13:05:00 19.5 C 62 % 12.03 C
1599 21-08-2019 13:10:00 19.7 C 58 % 11.21 C
1600 21-08-2019 13:15:00 19.8 C 62 % 12.31 C
Sensor: Nr:Datum:Temp:Feuchte:Taupunkt:
Aussen-T/F 1601 21-08-2019 13:20:00 20 C 59 % 11.75 C
1602 21-08-2019 13:25:00 20.3 C 58 % 11.77 C
1603 21-08-2019 13:30:00 20.7 C 58 % 12.15 C
1604 21-08-2019 13:35:00 20.8 C 57 % 11.97 C
1605 21-08-2019 13:40:00 20.9 C 56 % 11.8 C
1606 21-08-2019 13:45:00 21.1 C 56 % 11.99 C
1607 21-08-2019 13:50:00 21.2 C 55 % 11.81 C
1608 21-08-2019 13:55:00 21.3 C 53 % 11.34 C
1609 21-08-2019 14:00:00 21.4 C 56 % 12.27 C
1610 21-08-2019 14:05:00 21.4 C 53 % 11.43 C
1611 21-08-2019 14:10:00 21.6 C 53 % 11.62 C
1612 21-08-2019 14:15:00 21.6 C 52 % 11.33 C
1613 21-08-2019 14:20:00 21.7 C 53 % 11.71 C
1614 21-08-2019 14:25:00 21.7 C 53 % 11.71 C
1615 21-08-2019 14:30:00 21.8 C 52 % 11.51 C
1616 21-08-2019 14:35:00 21.9 C 52 % 11.61 C
1617 21-08-2019 14:40:00 22 C 55 % 12.55 C
1618 21-08-2019 14:45:00 22 C 50 % 11.11 C
1619 21-08-2019 14:50:00 22.2 C 50 % 11.29 C
1620 21-08-2019 14:55:00 22.2 C 49 % 10.98 C
1621 21-08-2019 15:00:00 22.3 C 50 % 11.38 C
1622 21-08-2019 15:05:00 22.4 C 48 % 10.86 C
1623 21-08-2019 15:10:00 22.3 C 55 % 12.83 C
1624 21-08-2019 15:15:00 22.3 C 57 % 13.37 C
1625 21-08-2019 15:20:00 22.4 C 57 % 13.47 C
Sensor: Nr:Datum:Temp:Feuchte:Taupunkt:
Aussen-T/F 1626 21-08-2019 15:25:00 22.6 C 50 % 11.66 C
1627 21-08-2019 15:30:00 22.8 C 52 % 12.43 C
1628 21-08-2019 15:35:00 23.3 C 50 % 12.3 C
1629 21-08-2019 15:40:00 23.6 C 46 % 11.31 C
1630 21-08-2019 15:45:00 23.7 C 46 % 11.4 C
1631 21-08-2019 15:50:00 23.8 C 48 % 12.14 C
1632 21-08-2019 15:55:00 24 C 44 % 11 C
1633 21-08-2019 16:00:00 24.2 C 45 % 11.52 C
1634 21-08-2019 16:05:00 24.2 C 43 % 10.84 C
1635 21-08-2019 16:10:00 23.9 C 42 % 10.21 C
1636 21-08-2019 16:15:00 23.9 C 43 % 10.57 C
1637 21-08-2019 16:20:00 24.1 C 44 % 11.09 C
1638 21-08-2019 16:25:00 24.4 C 42 % 10.66 C
1639 21-08-2019 16:30:00 24.6 C 43 % 11.2 C
1640 21-08-2019 16:35:00 24.7 C 43 % 11.29 C
1641 21-08-2019 16:40:00 24.9 C 40 % 10.38 C
1642 21-08-2019 16:45:00 25.1 C 40 % 10.56 C
1643 21-08-2019 16:50:00 24.9 C 39 % 10 C
1644 21-08-2019 16:55:00 24.8 C 40 % 10.29 C
1645 21-08-2019 17:00:00 24.8 C 42 % 11.02 C
1646 21-08-2019 17:05:00 25 C 42 % 11.2 C
1647 21-08-2019 17:10:00 25.1 C 41 % 10.93 C
1648 21-08-2019 17:15:00 24.8 C 41 % 10.66 C
1649 21-08-2019 17:20:00 24.5 C 40 % 10.02 C
1650 21-08-2019 17:25:00 24.4 C 42 % 10.66 C
Sensor: Nr:Datum:Temp:Feuchte:Taupunkt:
Aussen-T/F 1651 21-08-2019 17:30:00 24.6 C 40 % 10.11 C
1652 21-08-2019 17:35:00 24.6 C 40 % 10.11 C
1653 21-08-2019 17:40:00 24.6 C 40 % 10.11 C
1654 21-08-2019 17:45:00 24.6 C 47 % 12.54 C
1655 21-08-2019 17:50:00 24.4 C 41 % 10.3 C
1656 21-08-2019 17:55:00 24.4 C 44 % 11.36 C
1657 21-08-2019 18:00:00 24.4 C 43 % 11.02 C
1658 21-08-2019 18:05:00 24.5 C 41 % 10.39 C
1659 21-08-2019 18:10:00 24.6 C 46 % 12.22 C
1660 21-08-2019 18:15:00 24.6 C 41 % 10.48 C
1661 21-08-2019 18:20:00 24.7 C 40 % 10.2 C
1662 21-08-2019 18:25:00 24.7 C 53 % 14.48 C
1663 21-08-2019 18:30:00 24.8 C 51 % 13.98 C
1664 21-08-2019 18:35:00 24.8 C 48 % 13.05 C
1665 21-08-2019 18:40:00 24.8 C 45 % 12.06 C
1666 21-08-2019 18:45:00 24.8 C 41 % 10.66 C
1667 21-08-2019 18:50:00 24.6 C 41 % 10.48 C
1668 21-08-2019 18:55:00 24.4 C 42 % 10.66 C
1669 21-08-2019 19:00:00 24.3 C 42 % 10.57 C
1670 21-08-2019 19:05:00 24.4 C 52 % 13.91 C
1671 21-08-2019 19:10:00 24.4 C 47 % 12.36 C
1672 21-08-2019 19:15:00 24.3 C 54 % 14.4 C
1673 21-08-2019 19:20:00 23.9 C 52 % 13.45 C
1674 21-08-2019 19:25:00 23.7 C 56 % 14.4 C
1675 21-08-2019 19:30:00 23.4 C 58 % 14.67 C
Sensor: Nr:Datum:Temp:Feuchte:Taupunkt:
Aussen-T/F 1676 21-08-2019 19:35:00 23.2 C 58 % 14.48 C
1677 21-08-2019 19:40:00 22.9 C 59 % 14.47 C
1678 21-08-2019 19:45:00 22.6 C 60 % 14.44 C
1679 21-08-2019 19:50:00 22.4 C 60 % 14.26 C
1680 21-08-2019 19:55:00 22.1 C 62 % 14.48 C
1681 21-08-2019 20:00:00 21.7 C 61 % 13.85 C
1682 21-08-2019 20:05:00 21.3 C 63 % 13.97 C
1683 21-08-2019 20:10:00 20.9 C 62 % 13.35 C
1684 21-08-2019 20:15:00 20.6 C 63 % 13.31 C
1685 21-08-2019 20:20:00 20.2 C 65 % 13.41 C
1686 21-08-2019 20:25:00 19.9 C 65 % 13.13 C
1687 21-08-2019 20:30:00 19.6 C 66 % 13.08 C
1688 21-08-2019 20:35:00 19.3 C 66 % 12.79 C
1689 21-08-2019 20:40:00 19.1 C 66 % 12.6 C
1690 21-08-2019 20:45:00 18.8 C 66 % 12.32 C
1691 21-08-2019 20:50:00 18.7 C 67 % 12.45 C
1692 21-08-2019 20:55:00 18.4 C 66 % 11.94 C
1693 21-08-2019 21:00:00 18.3 C 67 % 12.07 C
1694 21-08-2019 21:05:00 18.1 C 67 % 11.88 C
1695 21-08-2019 21:10:00 17.9 C 66 % 11.46 C
1696 21-08-2019 21:15:00 17.8 C 66 % 11.37 C
1697 21-08-2019 21:20:00 17.7 C 67 % 11.5 C
1698 21-08-2019 21:25:00 17.6 C 68 % 11.63 C
1699 21-08-2019 21:30:00 17.4 C 67 % 11.21 C
1700 21-08-2019 21:35:00 17.3 C 67 % 11.12 C
Sensor: Nr:Datum:Temp:Feuchte:Taupunkt:
Aussen-T/F 1701 21-08-2019 21:40:00 17.1 C 66 % 10.7 C
1702 21-08-2019 21:45:00 17 C 67 % 10.83 C
1703 21-08-2019 21:50:00 16.9 C 67 % 10.74 C
1704 21-08-2019 21:55:00 16.8 C 68 % 10.87 C
1705 21-08-2019 22:00:00 16.7 C 68 % 10.77 C
1706 21-08-2019 22:05:00 16.6 C 69 % 10.89 C
1707 21-08-2019 22:10:00 16.5 C 69 % 10.8 C
1708 21-08-2019 22:15:00 16.4 C 69 % 10.7 C
1709 21-08-2019 22:20:00 16.3 C 69 % 10.61 C
1710 21-08-2019 22:25:00 16.2 C 68 % 10.29 C
1711 21-08-2019 22:30:00 16.2 C 68 % 10.29 C
1712 21-08-2019 22:35:00 16.2 C 68 % 10.29 C
1713 21-08-2019 22:40:00 16.2 C 69 % 10.51 C
1714 21-08-2019 22:45:00 16.1 C 70 % 10.63 C
1715 21-08-2019 22:50:00 16.1 C 71 % 10.84 C
1716 21-08-2019 22:55:00 16 C 72 % 10.96 C
1717 21-08-2019 23:00:00 15.9 C 74 % 11.28 C
1718 21-08-2019 23:05:00 15.8 C 74 % 11.18 C
1719 21-08-2019 23:10:00 15.7 C 75 % 11.28 C
1720 21-08-2019 23:15:00 15.6 C 76 % 11.39 C
1721 21-08-2019 23:20:00 15.4 C 77 % 11.39 C
1722 21-08-2019 23:25:00 15.2 C 77 % 11.2 C
1723 21-08-2019 23:30:00 14.9 C 78 % 11.1 C
1724 21-08-2019 23:35:00 14.8 C 79 % 11.2 C
1725 21-08-2019 23:40:00 14.6 C 79 % 11 C
Sensor: Nr:Datum:Temp:Feuchte:Taupunkt:
Aussen-T/F 1726 21-08-2019 23:45:00 14.3 C 80 % 10.9 C
1727 21-08-2019 23:50:00 14.3 C 81 % 11.09 C
1728 21-08-2019 23:55:00 14.2 C 82 % 11.17 C
1729 22-08-2019 00:00:00 14 C 82 % 10.98 C
1730 22-08-2019 00:05:00 13.9 C 82 % 10.88 C
1731 22-08-2019 00:10:00 13.9 C 82 % 10.88 C
1732 22-08-2019 00:15:00 13.8 C 83 % 10.97 C
1733 22-08-2019 00:20:00 13.6 C 83 % 10.77 C
1734 22-08-2019 00:25:00 13.5 C 83 % 10.67 C
1735 22-08-2019 00:30:00 13.4 C 84 % 10.75 C
1736 22-08-2019 00:35:00 13.3 C 84 % 10.66 C
1737 22-08-2019 00:40:00 13.2 C 84 % 10.56 C
1738 22-08-2019 00:45:00 13.1 C 85 % 10.64 C
1739 22-08-2019 00:50:00 13.1 C 85 % 10.64 C
1740 22-08-2019 00:55:00 12.9 C 85 % 10.44 C
1741 22-08-2019 01:00:00 12.8 C 85 % 10.34 C
1742 22-08-2019 01:05:00 12.8 C 85 % 10.34 C
1743 22-08-2019 01:10:00 12.7 C 85 % 10.25 C
1744 22-08-2019 01:15:00 12.6 C 85 % 10.15 C
1745 22-08-2019 01:20:00 12.5 C 86 % 10.22 C
1746 22-08-2019 01:25:00 12.4 C 86 % 10.13 C
1747 22-08-2019 01:30:00 12.3 C 86 % 10.03 C
1748 22-08-2019 01:35:00 12.3 C 86 % 10.03 C
1749 22-08-2019 01:40:00 12.2 C 87 % 10.1 C
1750 22-08-2019 01:45:00 12.2 C 87 % 10.1 C
Sensor: Nr:Datum:Temp:Feuchte:Taupunkt:
Aussen-T/F 1751 22-08-2019 01:50:00 12.1 C 87 % 10 C
1752 22-08-2019 01:55:00 12.1 C 87 % 10 C
1753 22-08-2019 02:00:00 12 C 88 % 10.08 C
1754 22-08-2019 02:05:00 11.9 C 88 % 9.98 C
1755 22-08-2019 02:10:00 11.9 C 88 % 9.98 C
1756 22-08-2019 02:15:00 11.8 C 88 % 9.88 C
1757 22-08-2019 02:20:00 11.8 C 88 % 9.88 C
1758 22-08-2019 02:25:00 11.7 C 88 % 9.78 C
1759 22-08-2019 02:30:00 11.6 C 89 % 9.85 C
1760 22-08-2019 02:35:00 11.6 C 89 % 9.85 C
1761 22-08-2019 02:40:00 11.5 C 89 % 9.75 C
1762 22-08-2019 02:45:00 11.4 C 89 % 9.65 C
1763 22-08-2019 02:50:00 11.4 C 89 % 9.65 C
1764 22-08-2019 02:55:00 11.4 C 90 % 9.82 C
1765 22-08-2019 03:00:00 11.3 C 90 % 9.72 C
1766 22-08-2019 03:05:00 11.3 C 90 % 9.72 C
1767 22-08-2019 03:10:00 11.2 C 90 % 9.62 C
1768 22-08-2019 03:15:00 11.2 C 91 % 9.79 C
1769 22-08-2019 03:20:00 11.3 C 91 % 9.89 C
1770 22-08-2019 03:25:00 11.2 C 91 % 9.79 C
1771 22-08-2019 03:30:00 11.2 C 90 % 9.62 C
1772 22-08-2019 03:35:00 11.1 C 90 % 9.52 C
1773 22-08-2019 03:40:00 11 C 90 % 9.42 C
1774 22-08-2019 03:45:00 10.9 C 90 % 9.33 C
1775 22-08-2019 03:50:00 10.9 C 91 % 9.49 C
Sensor: Nr:Datum:Temp:Feuchte:Taupunkt:
Aussen-T/F 1776 22-08-2019 03:55:00 10.9 C 91 % 9.49 C
1777 22-08-2019 04:00:00 10.8 C 91 % 9.39 C
1778 22-08-2019 04:05:00 10.7 C 91 % 9.29 C
1779 22-08-2019 04:10:00 10.7 C 91 % 9.29 C
1780 22-08-2019 04:15:00 10.6 C 91 % 9.19 C
1781 22-08-2019 04:20:00 10.6 C 92 % 9.36 C
1782 22-08-2019 04:25:00 10.6 C 92 % 9.36 C
1783 22-08-2019 04:30:00 10.6 C 92 % 9.36 C
1784 22-08-2019 04:35:00 10.6 C 92 % 9.36 C
1785 22-08-2019 04:40:00 10.5 C 92 % 9.26 C
1786 22-08-2019 04:45:00 10.4 C 92 % 9.16 C
1787 22-08-2019 04:50:00 10.3 C 92 % 9.06 C
1788 22-08-2019 04:55:00 10.3 C 92 % 9.06 C
1789 22-08-2019 05:00:00 10.2 C 92 % 8.96 C
1790 22-08-2019 05:05:00 10.2 C 92 % 8.96 C
1791 22-08-2019 05:10:00 10.2 C 92 % 8.96 C
1792 22-08-2019 05:15:00 10.1 C 92 % 8.86 C
1793 22-08-2019 05:20:00 10.1 C 93 % 9.02 C
1794 22-08-2019 05:25:00 10.1 C 93 % 9.02 C
1795 22-08-2019 05:30:00 9.9 C 93 % 8.82 C
1796 22-08-2019 05:35:00 9.9 C 93 % 8.82 C
1797 22-08-2019 05:40:00 9.8 C 93 % 8.72 C
1798 22-08-2019 05:45:00 9.8 C 93 % 8.72 C
1799 22-08-2019 05:50:00 9.8 C 93 % 8.72 C
1800 22-08-2019 05:55:00 9.8 C 93 % 8.72 C
Sensor: Nr:Datum:Temp:Feuchte:Taupunkt:
Aussen-T/F 1801 22-08-2019 06:00:00 9.7 C 93 % 8.62 C
1802 22-08-2019 06:05:00 9.7 C 93 % 8.62 C
1803 22-08-2019 06:10:00 9.7 C 93 % 8.62 C
1804 22-08-2019 06:15:00 9.7 C 94 % 8.78 C
1805 22-08-2019 06:20:00 9.7 C 94 % 8.78 C
1806 22-08-2019 06:25:00 9.7 C 94 % 8.78 C
1807 22-08-2019 06:30:00 9.7 C 94 % 8.78 C
1808 22-08-2019 06:35:00 9.7 C 94 % 8.78 C
1809 22-08-2019 06:40:00 9.7 C 94 % 8.78 C
1810 22-08-2019 06:45:00 9.8 C 94 % 8.88 C
1811 22-08-2019 06:50:00 9.8 C 94 % 8.88 C
1812 22-08-2019 06:55:00 9.7 C 94 % 8.78 C
1813 22-08-2019 07:00:00 9.7 C 94 % 8.78 C
1814 22-08-2019 07:05:00 9.6 C 94 % 8.68 C
1815 22-08-2019 07:10:00 9.6 C 94 % 8.68 C
1816 22-08-2019 07:15:00 9.6 C 94 % 8.68 C
1817 22-08-2019 07:20:00 9.7 C 95 % 8.94 C
1818 22-08-2019 07:25:00 9.7 C 95 % 8.94 C
1819 22-08-2019 07:30:00 9.7 C 95 % 8.94 C
1820 22-08-2019 07:35:00 9.7 C 95 % 8.94 C
1821 22-08-2019 07:40:00 9.7 C 95 % 8.94 C
1822 22-08-2019 07:45:00 9.8 C 95 % 9.04 C
1823 22-08-2019 07:50:00 9.8 C 95 % 9.04 C
1824 22-08-2019 07:55:00 9.8 C 95 % 9.04 C
1825 22-08-2019 08:00:00 9.9 C 95 % 9.14 C
Sensor: Nr:Datum:Temp:Feuchte:Taupunkt:
Aussen-T/F 1826 22-08-2019 08:05:00 9.9 C 95 % 9.14 C
1827 22-08-2019 08:10:00 10 C 95 % 9.24 C
1828 22-08-2019 08:15:00 10.1 C 95 % 9.34 C
1829 22-08-2019 08:20:00 10.2 C 95 % 9.44 C
1830 22-08-2019 08:25:00 10.3 C 95 % 9.54 C
1831 22-08-2019 08:30:00 10.3 C 95 % 9.54 C
1832 22-08-2019 08:35:00 10.4 C 95 % 9.63 C
1833 22-08-2019 08:40:00 10.5 C 96 % 9.89 C
1834 22-08-2019 08:45:00 10.6 C 96 % 9.99 C
1835 22-08-2019 08:50:00 10.7 C 96 % 10.09 C
1836 22-08-2019 08:55:00 10.8 C 96 % 10.19 C
1837 22-08-2019 09:00:00 10.9 C 96 % 10.29 C
1838 22-08-2019 09:05:00 11 C 96 % 10.39 C
1839 22-08-2019 09:10:00 11.1 C 96 % 10.49 C
1840 22-08-2019 09:15:00 11.2 C 96 % 10.59 C
1841 22-08-2019 09:20:00 11.3 C 96 % 10.69 C
1842 22-08-2019 09:25:00 11.4 C 96 % 10.79 C
1843 22-08-2019 09:30:00 11.6 C 96 % 10.98 C
1844 22-08-2019 09:35:00 11.7 C 96 % 11.08 C
1845 22-08-2019 09:40:00 11.8 C 96 % 11.18 C
1846 22-08-2019 09:45:00 11.9 C 96 % 11.28 C
1847 22-08-2019 09:50:00 12.1 C 96 % 11.48 C
1848 22-08-2019 09:55:00 12.3 C 96 % 11.68 C
1849 22-08-2019 10:00:00 12.4 C 96 % 11.78 C
1850 22-08-2019 10:05:00 12.7 C 96 % 12.08 C
Sensor: Nr:Datum:Temp:Feuchte:Taupunkt:
Aussen-T/F 1851 22-08-2019 10:10:00 12.8 C 96 % 12.18 C
1852 22-08-2019 10:15:00 13 C 96 % 12.38 C
1853 22-08-2019 10:20:00 13.2 C 96 % 12.58 C
1854 22-08-2019 10:25:00 13.3 C 95 % 12.52 C
1855 22-08-2019 10:30:00 13.6 C 95 % 12.81 C
1856 22-08-2019 10:35:00 13.7 C 94 % 12.75 C
1857 22-08-2019 10:40:00 13.9 C 94 % 12.95 C
1858 22-08-2019 10:45:00 14.2 C 93 % 13.08 C
1859 22-08-2019 10:50:00 14.6 C 92 % 13.32 C
1860 22-08-2019 10:55:00 14.8 C 92 % 13.51 C
1861 22-08-2019 11:00:00 15.2 C 90 % 13.57 C
1862 22-08-2019 11:05:00 15.5 C 88 % 13.52 C
1863 22-08-2019 11:10:00 15.9 C 88 % 13.92 C
1864 22-08-2019 11:15:00 16.2 C 86 % 13.86 C
1865 22-08-2019 11:20:00 16.4 C 86 % 14.05 C
1866 22-08-2019 11:25:00 16.8 C 82 % 13.71 C
1867 22-08-2019 11:30:00 17.2 C 79 % 13.53 C
1868 22-08-2019 11:35:00 17.5 C 79 % 13.82 C
1869 22-08-2019 11:40:00 17.8 C 79 % 14.11 C
1870 22-08-2019 11:45:00 18 C 78 % 14.11 C
1871 22-08-2019 11:50:00 18.2 C 77 % 14.1 C
1872 22-08-2019 11:55:00 18.4 C 77 % 14.3 C
1873 22-08-2019 12:00:00 18.7 C 77 % 14.59 C
1874 22-08-2019 12:05:00 18.8 C 76 % 14.48 C
1875 22-08-2019 12:10:00 19.1 C 77 % 14.97 C
Sensor: Nr:Datum:Temp:Feuchte:Taupunkt:
Aussen-T/F 1876 22-08-2019 12:15:00 19.2 C 72 % 14.03 C
1877 22-08-2019 12:20:00 19.4 C 67 % 13.12 C
1878 22-08-2019 12:25:00 19.9 C 62 % 12.41 C
1879 22-08-2019 12:30:00 20.4 C 66 % 13.84 C
1880 22-08-2019 12:35:00 20.7 C 61 % 12.91 C
1881 22-08-2019 12:40:00 21 C 59 % 12.69 C
1882 22-08-2019 12:45:00 21.2 C 58 % 12.61 C
1883 22-08-2019 12:50:00 21.4 C 58 % 12.8 C
1884 22-08-2019 12:55:00 21.6 C 57 % 12.72 C
1885 22-08-2019 13:00:00 21.8 C 58 % 13.17 C
1886 22-08-2019 13:05:00 22.2 C 55 % 12.73 C
1887 22-08-2019 13:10:00 22.3 C 54 % 12.55 C
1888 22-08-2019 13:15:00 22.4 C 54 % 12.64 C
1889 22-08-2019 13:20:00 22.6 C 53 % 12.54 C
1890 22-08-2019 13:25:00 22.7 C 54 % 12.92 C
1891 22-08-2019 13:30:00 22.8 C 53 % 12.73 C
1892 22-08-2019 13:35:00 22.9 C 55 % 13.38 C
1893 22-08-2019 13:40:00 22.9 C 53 % 12.82 C
1894 22-08-2019 13:45:00 23.2 C 53 % 13.09 C
1895 22-08-2019 13:50:00 23.3 C 52 % 12.9 C
1896 22-08-2019 13:55:00 23.5 C 52 % 13.08 C
1897 22-08-2019 14:00:00 23.6 C 51 % 12.88 C
1898 22-08-2019 14:05:00 23.7 C 51 % 12.97 C
1899 22-08-2019 14:10:00 23.7 C 49 % 12.36 C
1900 22-08-2019 14:15:00 23.8 C 53 % 13.65 C
Sensor: Nr:Datum:Temp:Feuchte:Taupunkt:
Aussen-T/F 1901 22-08-2019 14:20:00 23.9 C 50 % 12.85 C
1902 22-08-2019 14:25:00 24 C 48 % 12.32 C
1903 22-08-2019 14:30:00 24.1 C 46 % 11.76 C
1904 22-08-2019 14:35:00 24.1 C 46 % 11.76 C
1905 22-08-2019 14:40:00 24.2 C 48 % 12.5 C
1906 22-08-2019 14:45:00 24.4 C 46 % 12.04 C
1907 22-08-2019 14:50:00 24.7 C 44 % 11.63 C
1908 22-08-2019 14:55:00 24.8 C 44 % 11.72 C
1909 22-08-2019 15:00:00 24.9 C 44 % 11.81 C
1910 22-08-2019 15:05:00 25.2 C 43 % 11.74 C
1911 22-08-2019 15:10:00 25.5 C 41 % 11.29 C
1912 22-08-2019 15:15:00 25.7 C 41 % 11.47 C
1913 22-08-2019 15:20:00 25.9 C 40 % 11.27 C
1914 22-08-2019 15:25:00 26.2 C 44 % 12.99 C
1915 22-08-2019 15:30:00 26.2 C 43 % 12.64 C
1916 22-08-2019 15:35:00 26.2 C 39 % 11.16 C
1917 22-08-2019 15:40:00 26.2 C 38 % 10.77 C
1918 22-08-2019 15:45:00 26.1 C 39 % 11.07 C
1919 22-08-2019 15:50:00 26.2 C 40 % 11.54 C
1920 22-08-2019 15:55:00 26.4 C 39 % 11.34 C
1921 22-08-2019 16:00:00 26.6 C 38 % 11.12 C
1922 22-08-2019 16:05:00 26.8 C 40 % 12.07 C
1923 22-08-2019 16:10:00 26.8 C 37 % 10.9 C
1924 22-08-2019 16:15:00 26.9 C 37 % 10.99 C
1925 22-08-2019 16:20:00 27.1 C 39 % 11.96 C
Sensor: Nr:Datum:Temp:Feuchte:Taupunkt:
Aussen-T/F 1926 22-08-2019 16:25:00 27.3 C 39 % 12.13 C
1927 22-08-2019 16:30:00 27.6 C 37 % 11.6 C
1928 22-08-2019 16:35:00 27.8 C 38 % 12.18 C
1929 22-08-2019 16:40:00 27.7 C 34 % 10.42 C
1930 22-08-2019 16:45:00 27.7 C 36 % 11.28 C
1931 22-08-2019 16:50:00 27.8 C 37 % 11.78 C
1932 22-08-2019 16:55:00 27.9 C 35 % 11.03 C
1933 22-08-2019 17:00:00 28 C 35 % 11.12 C
1934 22-08-2019 17:05:00 28.1 C 36 % 11.63 C
1935 22-08-2019 17:10:00 28.1 C 34 % 10.77 C
1936 22-08-2019 17:15:00 27.9 C 34 % 10.59 C
1937 22-08-2019 17:20:00 27.9 C 34 % 10.59 C
1938 22-08-2019 17:25:00 27.8 C 34 % 10.51 C
1939 22-08-2019 17:30:00 27.9 C 34 % 10.59 C
1940 22-08-2019 17:35:00 28.2 C 35 % 11.29 C
1941 22-08-2019 17:40:00 28 C 34 % 10.68 C
1942 22-08-2019 17:45:00 27.9 C 35 % 11.03 C
1943 22-08-2019 17:50:00 28.1 C 36 % 11.63 C
1944 22-08-2019 17:55:00 28.3 C 34 % 10.94 C
1945 22-08-2019 18:00:00 28.3 C 32 % 10.03 C
1946 22-08-2019 18:05:00 28.3 C 37 % 12.22 C
1947 22-08-2019 18:10:00 28.3 C 33 % 10.49 C
1948 22-08-2019 18:15:00 28.4 C 33 % 10.58 C
1949 22-08-2019 18:20:00 28.4 C 32 % 10.12 C
1950 22-08-2019 18:25:00 28.4 C 33 % 10.58 C
Sensor: Nr:Datum:Temp:Feuchte:Taupunkt:
Aussen-T/F 1951 22-08-2019 18:30:00 28.4 C 34 % 11.03 C
1952 22-08-2019 18:35:00 28.5 C 36 % 11.98 C
1953 22-08-2019 18:40:00 28.4 C 32 % 10.12 C
1954 22-08-2019 18:45:00 28.4 C 34 % 11.03 C
1955 22-08-2019 18:50:00 28.4 C 38 % 12.72 C
1956 22-08-2019 18:55:00 28.4 C 44 % 14.97 C
1957 22-08-2019 19:00:00 28.3 C 45 % 15.23 C
1958 22-08-2019 19:05:00 28.1 C 47 % 15.73 C
1959 22-08-2019 19:10:00 27.7 C 46 % 15.03 C
1960 22-08-2019 19:15:00 27.1 C 45 % 14.15 C
1961 22-08-2019 19:20:00 26.6 C 48 % 14.69 C
1962 22-08-2019 19:25:00 26.1 C 49 % 14.55 C
1963 22-08-2019 19:30:00 25.7 C 51 % 14.81 C
1964 22-08-2019 19:35:00 25.3 C 49 % 13.82 C
1965 22-08-2019 19:40:00 24.9 C 51 % 14.07 C
1966 22-08-2019 19:45:00 24.7 C 52 % 14.19 C
1967 22-08-2019 19:50:00 24.3 C 53 % 14.11 C
1968 22-08-2019 19:55:00 24 C 52 % 13.54 C
1969 22-08-2019 20:00:00 23.7 C 53 % 13.56 C
1970 22-08-2019 20:05:00 23.3 C 54 % 13.47 C
1971 22-08-2019 20:10:00 22.9 C 55 % 13.38 C
1972 22-08-2019 20:15:00 22.6 C 57 % 13.65 C
1973 22-08-2019 20:20:00 22.2 C 58 % 13.55 C
1974 22-08-2019 20:25:00 21.7 C 58 % 13.08 C
1975 22-08-2019 20:30:00 21.3 C 59 % 12.97 C
Sensor: Nr:Datum:Temp:Feuchte:Taupunkt:
Aussen-T/F 1976 22-08-2019 20:35:00 20.8 C 61 % 13.01 C
1977 22-08-2019 20:40:00 20.3 C 61 % 12.54 C
1978 22-08-2019 20:45:00 19.9 C 62 % 12.41 C
1979 22-08-2019 20:50:00 19.7 C 62 % 12.22 C
1980 22-08-2019 20:55:00 19.5 C 63 % 12.27 C
1981 22-08-2019 21:00:00 19.3 C 65 % 12.56 C
1982 22-08-2019 21:05:00 19.2 C 65 % 12.47 C
1983 22-08-2019 21:10:00 18.9 C 65 % 12.18 C
1984 22-08-2019 21:15:00 18.8 C 66 % 12.32 C
1985 22-08-2019 21:20:00 18.6 C 68 % 12.58 C
1986 22-08-2019 21:25:00 18.3 C 68 % 12.3 C
1987 22-08-2019 21:30:00 18.1 C 69 % 12.33 C
1988 22-08-2019 21:35:00 17.8 C 70 % 12.26 C
1989 22-08-2019 21:40:00 17.7 C 72 % 12.59 C
1990 22-08-2019 21:45:00 17.6 C 72 % 12.5 C
1991 22-08-2019 21:50:00 17.4 C 73 % 12.51 C
1992 22-08-2019 21:55:00 17.3 C 74 % 12.62 C
1993 22-08-2019 22:00:00 17.2 C 74 % 12.53 C
1994 22-08-2019 22:05:00 17 C 74 % 12.34 C
1995 22-08-2019 22:10:00 16.8 C 74 % 12.14 C
1996 22-08-2019 22:15:00 16.7 C 75 % 12.25 C
1997 22-08-2019 22:20:00 16.6 C 76 % 12.36 C
1998 22-08-2019 22:25:00 16.5 C 76 % 12.26 C
1999 22-08-2019 22:30:00 16.4 C 77 % 12.36 C
2000 22-08-2019 22:35:00 16.2 C 77 % 12.17 C
Sensor: Nr:Datum:Temp:Feuchte:Taupunkt:
Aussen-T/F 2001 22-08-2019 22:40:00 16.1 C 78 % 12.27 C
2002 22-08-2019 22:45:00 15.9 C 77 % 11.88 C
2003 22-08-2019 22:50:00 15.8 C 76 % 11.58 C
2004 22-08-2019 22:55:00 15.7 C 77 % 11.68 C
2005 22-08-2019 23:00:00 15.6 C 77 % 11.59 C
2006 22-08-2019 23:05:00 15.4 C 78 % 11.59 C
2007 22-08-2019 23:10:00 15.3 C 78 % 11.49 C
2008 22-08-2019 23:15:00 15.2 C 79 % 11.59 C
2009 22-08-2019 23:20:00 15.1 C 79 % 11.49 C
2010 22-08-2019 23:25:00 14.9 C 80 % 11.48 C
2011 22-08-2019 23:30:00 14.8 C 80 % 11.39 C
2012 22-08-2019 23:35:00 14.7 C 80 % 11.29 C
2013 22-08-2019 23:40:00 14.6 C 80 % 11.19 C
2014 22-08-2019 23:45:00 14.5 C 80 % 11.09 C
2015 22-08-2019 23:50:00 14.4 C 80 % 11 C
2016 22-08-2019 23:55:00 14.4 C 81 % 11.18 C

Legende:
   Min
   Max


Maximal/Minimal-Werte vom 23.02.2003 - 16.08.2019

Sensor Min Max Avg
Temp
(Aussen-T/F)
-16.4 °C
20-12-2009  01:30:01
40.4 °C
25-07-2019  16:20:00
11.22 °C
Feuchte
(Aussen-T/F)
18 %
17-07-2015  15:55:00
100 %
07-10-2012  03:05:00
76.99 %

Die Daten stammen von einer Davis Vantage Pro 2 Wetter-Station und werden unter Linux mit der Software wview2wettercgi und aufbereitet. Alle Angaben erfolgen ohne Gewähr für ihre Vollständigkeit oder Richtigkeit.
Kontakt: Rainer Krienke krienke@uni-koblenz.de . Meine Webseiten an der Uni Koblenz oder privat.
Version: $Revision: 0.78 $